M I D A S
Marine Information and Data Acquisition System
Tripno 1617 of the Zeeleeuw from 2008-11-27 08:04:50 to 2008-11-27 16:01:30
Back to CruiseResearch ActivitiesStationsMapUnderway DataData graphs

EquipmentUnitsComment
TimeDGPSUTC
LatitudeDGPSDM.mWGS84
LongitudeDGPSDM.mWGS84
TemperatureSBE03/SBE38deg celciusITS90
ConductivitySBE21S/mITS90
SalinitySBE21 Practical Salinity Units
ChlorophylAChelsea fluorimeterg/lCalibrated in Aceton
Missing or incorrect values are displayed as -999
Sea surface data collected by the RV Zeeleeuw from 2008-11-27 08:00:37 to 2008-11-27 16:17:23
                                                                                    Next 1000 lines
Time Latitude Longitude Temperature Conductivity Salinity ChlorophylA
2008-11-27 08:00:47 51°13.624 2°56.049 -999 0.077917 0.417888 -0.721976
2008-11-27 08:00:52 51°13.624 2°56.049 -999 0.077917 0.417888 -0.721976
2008-11-27 08:00:57 51°13.624 2°56.049 -999 0.077917 0.417895 -0.721976
2008-11-27 08:01:02 51°13.624 2°56.049 -999 0.077917 0.417902 -0.721976
2008-11-27 08:01:07 51°13.624 2°56.049 -999 0.077917 0.417902 -0.721976
2008-11-27 08:01:12 51°13.624 2°56.049 -999 0.077917 0.417902 -0.721976
2008-11-27 08:01:17 51°13.624 2°56.049 -999 0.077917 0.417902 -0.721976
2008-11-27 08:01:22 51°13.624 2°56.049 -999 0.077917 0.417902 -0.721976
2008-11-27 08:01:27 51°13.624 2°56.049 -999 0.077917 0.41791 -0.721976
2008-11-27 08:01:32 51°13.624 2°56.049 -999 0.077917 0.41791 -0.721976
2008-11-27 08:01:37 51°13.624 2°56.049 -999 0.077917 0.41791 -0.721976
2008-11-27 08:01:42 51°13.624 2°56.049 -999 0.077917 0.41791 -0.721976
2008-11-27 08:01:47 51°13.624 2°56.049 -999 0.077917 0.417917 -0.721976
2008-11-27 08:01:52 51°13.624 2°56.049 -999 0.077917 0.417924 -0.721976
2008-11-27 08:01:57 51°13.624 2°56.049 -999 0.077917 0.417924 -0.721976
2008-11-27 08:02:01 51°13.624 2°56.049 -999 0.077917 0.417931 -0.721976
2008-11-27 08:02:07 51°13.624 2°56.049 -999 0.077917 0.417931 -0.721976
2008-11-27 08:02:12 51°13.624 2°56.049 -999 0.077917 0.417931 -0.721976
2008-11-27 08:02:17 51°13.624 2°56.049 -999 0.077917 0.417931 -0.721976
2008-11-27 08:02:22 51°13.624 2°56.049 -999 0.077917 0.417931 -0.721976
2008-11-27 08:02:27 51°13.624 2°56.049 -999 0.077917 0.417938 -0.721976
2008-11-27 08:02:32 51°13.624 2°56.049 -999 0.077917 0.417946 -0.721976
2008-11-27 08:02:37 51°13.624 2°56.049 -999 0.077917 0.417946 -0.721976
2008-11-27 08:02:42 51°13.624 2°56.049 -999 0.077917 0.417946 -0.721976
2008-11-27 08:02:47 51°13.624 2°56.049 -999 0.077917 0.417953 -0.721976
2008-11-27 08:02:52 51°13.623 2°56.049 -999 0.077917 0.417953 -0.721976
2008-11-27 08:02:57 51°13.623 2°56.049 -999 0.077917 0.41796 -0.721976
2008-11-27 08:03:02 51°13.623 2°56.049 -999 0.077917 0.417967 -0.687152
2008-11-27 08:03:07 51°13.623 2°56.049 -999 0.077917 0.417967 -0.687152
2008-11-27 08:03:12 51°13.623 2°56.049 -999 0.077917 0.417967 -0.687152
2008-11-27 08:03:17 51°13.623 2°56.049 -999 0.077917 0.417974 -0.721976
2008-11-27 08:03:22 51°13.623 2°56.048 -999 0.077917 0.417974 -0.721976
2008-11-27 08:03:27 51°13.623 2°56.048 -999 0.077917 0.417974 -0.721976
2008-11-27 08:03:32 51°13.623 2°56.047 -999 0.077917 0.417974 -0.721976
2008-11-27 08:03:37 51°13.624 2°56.045 -999 0.077917 0.417981 -0.721976
2008-11-27 08:03:42 51°13.625 2°56.042 -999 0.077917 0.417981 -0.721976
2008-11-27 08:03:47 51°13.626 2°56.037 -999 0.077917 0.417989 -0.7568
2008-11-27 08:03:52 51°13.628 2°56.033 -999 0.077917 0.417989 -0.721976
2008-11-27 08:03:57 51°13.63 2°56.027 -999 0.077917 0.417996 -0.721976
2008-11-27 08:04:02 51°13.632 2°56.022 -999 0.077917 0.417996 -0.7568
2008-11-27 08:04:07 51°13.634 2°56.015 -999 0.077917 0.417996 -0.721976
2008-11-27 08:04:12 51°13.636 2°56.009 -999 0.077917 0.417996 -0.721976
2008-11-27 08:04:17 51°13.638 2°56.002 -999 0.077917 0.418003 -0.721976
2008-11-27 08:04:22 51°13.64 2°55.995 -999 0.077917 0.41801 -0.7568
2008-11-27 08:04:27 51°13.642 2°55.987 -999 0.077917 0.41801 -0.721976
2008-11-27 08:04:32 51°13.644 2°55.979 -999 0.077917 0.418017 -0.721976
2008-11-27 08:04:37 51°13.646 2°55.971 -999 0.077917 0.418025 -0.721976
2008-11-27 08:04:42 51°13.648 2°55.963 -999 0.077917 0.418025 -0.721976
2008-11-27 08:04:47 51°13.651 2°55.955 -999 0.077917 0.418032 -0.721976
2008-11-27 08:04:52 51°13.653 2°55.946 -999 0.077917 0.418032 -0.721976
2008-11-27 08:04:57 51°13.656 2°55.937 -999 0.077917 0.418039 -0.721976
2008-11-27 08:05:02 51°13.659 2°55.928 -999 0.077917 0.418039 -0.721976
2008-11-27 08:05:07 51°13.662 2°55.919 -999 0.077917 0.418046 -0.721976
2008-11-27 08:05:12 51°13.665 2°55.91 -999 0.077917 0.418046 -0.721976
2008-11-27 08:05:17 51°13.668 2°55.902 -999 0.077917 0.418039 -0.721976
2008-11-27 08:05:22 51°13.671 2°55.893 -999 0.077917 0.418039 -0.721976
2008-11-27 08:05:27 51°13.675 2°55.884 -999 0.077917 0.418046 -0.721976
2008-11-27 08:05:32 51°13.678 2°55.875 -999 0.077917 0.418039 -0.721976
2008-11-27 08:05:37 51°13.681 2°55.866 -999 0.077917 0.418039 -0.721976
2008-11-27 08:05:42 51°13.684 2°55.857 -999 0.077917 0.418039 -0.721976
2008-11-27 08:05:47 51°13.687 2°55.849 -999 0.077917 0.418046 -0.721976
2008-11-27 08:05:52 51°13.69 2°55.84 -999 0.077917 0.418046 -0.721976
2008-11-27 08:05:57 51°13.692 2°55.831 -999 0.077917 0.418046 -0.721976
2008-11-27 08:06:02 51°13.695 2°55.823 -999 0.077917 0.418046 -0.721976
2008-11-27 08:06:07 51°13.698 2°55.814 -999 0.077917 0.418053 -0.721976
2008-11-27 08:06:12 51°13.7 2°55.806 -999 0.077917 0.418053 -0.721976
2008-11-27 08:06:17 51°13.702 2°55.799 -999 0.077917 0.418061 -0.721976
2008-11-27 08:06:22 51°13.705 2°55.792 -999 0.077917 0.418068 -0.721976
2008-11-27 08:06:27 51°13.707 2°55.786 -999 0.077917 0.418075 -0.721976
2008-11-27 08:06:32 51°13.709 2°55.782 -999 0.077917 0.418075 -0.721976
2008-11-27 08:06:37 51°13.71 2°55.779 -999 0.077917 0.418082 -0.687152
2008-11-27 08:06:41 51°13.71 2°55.778 -999 0.077917 0.418082 -0.687152
2008-11-27 08:06:46 51°13.711 2°55.777 -999 0.077917 0.418089 -0.721976
2008-11-27 08:06:51 51°13.711 2°55.775 -999 0.077917 0.418097 -0.7568
2008-11-27 08:06:56 51°13.712 2°55.773 -999 0.077917 0.418104 -0.721976
2008-11-27 08:07:01 51°13.712 2°55.769 -999 0.077917 0.418104 -0.7568
2008-11-27 08:07:05 51°13.713 2°55.766 -999 0.077917 0.418118 -0.7568
2008-11-27 08:07:10 51°13.713 2°55.762 -999 0.077917 0.418118 -0.7568
2008-11-27 08:07:15 51°13.714 2°55.757 -999 0.077917 0.418118 -0.721976
2008-11-27 08:07:20 51°13.714 2°55.752 -999 0.077917 0.418125 -0.7568
2008-11-27 08:07:25 51°13.715 2°55.746 -999 0.077917 0.418118 -0.721976
2008-11-27 08:07:31 51°13.715 2°55.74 -999 0.077917 0.418118 -0.721976
2008-11-27 08:07:36 51°13.715 2°55.734 -999 0.077917 0.418125 -0.721976
2008-11-27 08:07:41 51°13.715 2°55.729 -999 0.077917 0.418125 -0.721976
2008-11-27 08:07:45 51°13.715 2°55.726 -999 0.077917 0.418133 -0.721976
2008-11-27 08:07:50 51°13.715 2°55.721 -999 0.077917 0.41814 -0.721976
2008-11-27 08:07:56 51°13.715 2°55.717 -999 0.077917 0.41814 -0.721976
2008-11-27 08:08:00 51°13.715 2°55.716 -999 0.077917 0.418147 -0.721976
2008-11-27 08:08:05 51°13.715 2°55.716 -999 0.077917 0.418154 -0.721976
2008-11-27 08:08:09 51°13.716 2°55.715 -999 0.077917 0.418154 -0.721976
2008-11-27 08:08:15 51°13.716 2°55.715 -999 0.077917 0.418154 -0.721976
2008-11-27 08:08:19 51°13.716 2°55.714 -999 0.077917 0.418154 -0.721976
2008-11-27 08:08:24 51°13.716 2°55.713 -999 0.077917 0.418161 -0.721976
2008-11-27 08:08:29 51°13.715 2°55.711 -999 0.077917 0.418154 -0.721976
2008-11-27 08:08:33 51°13.714 2°55.709 -999 0.077917 0.418154 -0.721976
2008-11-27 08:08:39 51°13.713 2°55.706 -999 0.077917 0.418154 -0.721976
2008-11-27 08:08:44 51°13.712 2°55.704 -999 0.077917 0.418154 -0.721976
2008-11-27 08:08:49 51°13.712 2°55.702 -999 0.077917 0.418154 -0.721976
2008-11-27 08:08:53 51°13.712 2°55.702 -999 0.077917 0.418154 -0.687152
2008-11-27 08:08:59 51°13.714 2°55.702 -999 0.077917 0.418169 -0.721976
2008-11-27 08:09:04 51°13.716 2°55.704 -999 0.077917 0.418176 -0.687152
2008-11-27 08:09:09 51°13.719 2°55.705 -999 0.077917 0.418176 -0.687152
2008-11-27 08:09:13 51°13.723 2°55.705 -999 0.077917 0.41819 -0.687152
2008-11-27 08:09:18 51°13.727 2°55.705 -999 0.077917 0.418212 -0.687152
2008-11-27 08:09:24 51°13.733 2°55.704 -999 0.077917 0.418241 -0.652328
2008-11-27 08:09:29 51°13.739 2°55.701 -999 0.077917 0.418248 -0.687152
2008-11-27 08:09:33 51°13.745 2°55.698 -999 0.077917 0.418248 -0.687152
2008-11-27 08:09:38 51°13.752 2°55.694 -999 0.077917 0.418248 -0.687152
2008-11-27 08:09:44 51°13.762 2°55.688 -999 0.077917 0.418234 -0.687152
2008-11-27 08:09:49 51°13.771 2°55.683 -999 0.077917 0.418219 -0.687152
2008-11-27 08:09:53 51°13.778 2°55.678 -999 0.077917 0.418205 -0.721976
2008-11-27 08:09:58 51°13.787 2°55.671 -999 0.077917 0.418205 -0.687152
2008-11-27 08:10:04 51°13.799 2°55.662 -999 0.077917 0.418205 -0.721976
2008-11-27 08:10:09 51°13.81 2°55.655 -999 0.077917 0.418205 -0.721976
2008-11-27 08:10:13 51°13.818 2°55.649 -999 0.077917 0.418212 -0.721976
2008-11-27 08:10:18 51°13.829 2°55.641 -999 0.077917 0.418226 -0.721976
2008-11-27 08:10:24 51°13.842 2°55.631 -999 0.077917 0.418234 -0.721976
2008-11-27 08:10:28 51°13.851 2°55.624 -999 0.077917 0.418241 -0.721976
2008-11-27 08:10:33 51°13.862 2°55.615 -999 0.077917 0.418234 -0.721976
2008-11-27 08:10:39 51°13.876 2°55.605 -999 0.077917 0.418234 -0.721976
2008-11-27 08:10:44 51°13.888 2°55.596 -999 0.077917 0.418234 -0.721976
2008-11-27 08:10:48 51°13.897 2°55.59 -999 0.077917 0.418234 -0.721976
2008-11-27 08:10:53 51°13.908 2°55.581 -999 0.077917 0.418241 -0.721976
2008-11-27 08:10:59 51°13.921 2°55.571 -999 0.077917 0.418255 -0.721976
2008-11-27 08:11:04 51°13.932 2°55.563 -999 0.077917 0.41827 -0.721976
2008-11-27 08:11:08 51°13.94 2°55.556 -999 0.077917 0.41827 -0.721976
2008-11-27 08:11:13 51°13.951 2°55.548 -999 0.077917 0.418277 -0.721976
2008-11-27 08:11:18 51°13.961 2°55.54 -999 0.077917 0.418284 -0.721976
2008-11-27 08:11:24 51°13.974 2°55.531 -999 0.077917 0.418284 -0.721976
2008-11-27 08:11:29 51°13.985 2°55.523 -999 0.077917 0.418291 -0.721976
2008-11-27 08:11:33 51°13.993 2°55.516 -999 0.077917 0.418291 -0.721976
2008-11-27 08:11:38 51°14.003 2°55.508 -999 0.077917 0.418291 -0.721976
2008-11-27 08:11:44 51°14.015 2°55.499 -999 0.077917 0.418298 -0.721976
2008-11-27 08:11:49 51°14.025 2°55.491 -999 0.077917 0.418306 -0.721976
2008-11-27 08:11:53 51°14.033 2°55.484 -999 0.077917 0.418313 -0.721976
2008-11-27 08:11:58 51°14.042 2°55.476 -999 0.077917 0.41832 -0.721976
2008-11-27 08:12:04 51°14.053 2°55.467 -999 0.077917 0.41832 -0.721976
2008-11-27 08:12:09 51°14.062 2°55.459 -999 0.077917 0.41832 -0.721976
2008-11-27 08:12:13 51°14.069 2°55.453 -999 0.077917 0.418327 -0.721976
2008-11-27 08:12:18 51°14.078 2°55.446 -999 0.077917 0.418327 -0.721976
2008-11-27 08:12:24 51°14.089 2°55.437 -999 0.077917 0.418327 -0.721976
2008-11-27 08:12:28 51°14.096 2°55.431 -999 0.077917 0.418327 -0.721976
2008-11-27 08:12:33 51°14.105 2°55.423 -999 0.077917 0.418327 -0.721976
2008-11-27 08:12:38 51°14.113 2°55.416 -999 0.077917 0.418327 -0.721976
2008-11-27 08:12:44 51°14.123 2°55.407 -999 0.077917 0.418327 -0.721976
2008-11-27 08:12:49 51°14.131 2°55.399 -999 0.077917 0.418334 -0.721976
2008-11-27 08:12:54 51°14.14 2°55.392 -999 0.077917 0.418342 -0.721976
2008-11-27 08:12:59 51°14.148 2°55.384 -999 0.065568 0.352202 -0.129967
2008-11-27 08:13:04 51°14.156 2°55.377 -999 0.198644 1.113109 -0.060319
2008-11-27 08:13:09 51°14.165 2°55.369 -999 0.198644 1.113109 -0.060319
2008-11-27 08:13:13 51°14.171 2°55.363 -999 0.239406 1.356617 -0.129967
2008-11-27 08:13:19 51°14.181 2°55.353 -999 1.054104 6.754262 -0.060319
2008-11-27 08:13:24 51°14.189 2°55.345 -999 2.117402 15.054474 1.506764
2008-11-27 08:13:28 51°14.196 2°55.337 -999 2.623348 20.260809 3.039022
2008-11-27 08:13:33 51°14.205 2°55.327 -999 2.726267 22.029391 3.178318
2008-11-27 08:13:38 51°14.213 2°55.316 -999 2.726267 22.029391 3.178318
2008-11-27 08:13:44 51°14.224 2°55.302 -999 2.926777 24.84211 3.979271
2008-11-27 08:13:48 51°14.231 2°55.292 -999 2.935169 25.705318 4.118568
2008-11-27 08:13:53 51°14.24 2°55.28 -999 2.881889 25.843258 4.014096
2008-11-27 08:13:58 51°14.249 2°55.266 -999 2.866477 26.021348 4.014096
2008-11-27 08:14:04 51°14.26 2°55.248 -999 2.826959 25.879257 4.014096
2008-11-27 08:14:08 51°14.267 2°55.236 -999 2.826959 25.879257 4.014096
2008-11-27 08:14:13 51°14.276 2°55.22 -999 2.808339 25.831334 4.04892
2008-11-27 08:14:18 51°14.285 2°55.204 -999 2.785995 25.757226 4.014096
2008-11-27 08:14:23 51°14.295 2°55.187 -999 2.766859 25.621438 4.04892
2008-11-27 08:14:29 51°14.306 2°55.167 -999 2.754033 25.580872 4.083744
2008-11-27 08:14:33 51°14.314 2°55.154 -999 2.752068 25.633459 4.04892
2008-11-27 08:14:39 51°14.325 2°55.133 -999 2.752068 25.633459 4.04892
2008-11-27 08:14:44 51°14.336 2°55.116 -999 2.749173 25.660683 3.979271
2008-11-27 08:14:49 51°14.345 2°55.099 -999 2.755173 25.749941 3.909623
2008-11-27 08:14:53 51°14.352 2°55.084 -999 2.750828 25.732208 3.909623
2008-11-27 08:14:59 51°14.364 2°55.063 -999 2.775552 26.014188 3.944447
2008-11-27 08:15:04 51°14.374 2°55.046 -999 2.791896 26.197359 3.944447
2008-11-27 08:15:08 51°14.382 2°55.032 -999 2.791896 26.197359 3.944447
2008-11-27 08:15:13 51°14.392 2°55.014 -999 2.804311 26.338817 3.944447
2008-11-27 08:15:19 51°14.406 2°54.994 -999 2.836485 26.683124 3.979271
2008-11-27 08:15:24 51°14.416 2°54.976 -999 2.852936 26.862879 3.979271
2008-11-27 08:15:28 51°14.425 2°54.962 -999 2.876836 27.114594 3.909623
2008-11-27 08:15:33 51°14.436 2°54.945 -999 2.896806 27.322894 3.944447
2008-11-27 08:15:39 51°14.451 2°54.925 -999 2.896806 27.322894 3.944447
2008-11-27 08:15:44 51°14.463 2°54.909 -999 2.918949 27.565643 3.944447
2008-11-27 08:15:48 51°14.473 2°54.897 -999 2.926193 27.648382 3.979271
2008-11-27 08:15:53 51°14.486 2°54.882 -999 2.939128 27.784697 3.944447
2008-11-27 08:15:58 51°14.499 2°54.867 -999 2.946165 27.8625 3.874799
2008-11-27 08:16:04 51°14.514 2°54.849 -999 2.970691 28.116338 3.805151
2008-11-27 08:16:08 51°14.525 2°54.836 -999 2.970691 28.116338 3.805151
2008-11-27 08:16:13 51°14.538 2°54.82 -999 2.987456 28.297495 3.700679
2008-11-27 08:16:18 51°14.551 2°54.805 -999 3.001117 28.441882 3.700679
2008-11-27 08:16:24 51°14.567 2°54.787 -999 3.029268 28.735122 3.631031
2008-11-27 08:16:29 51°14.581 2°54.771 -999 3.044483 28.890774 3.561383
2008-11-27 08:16:33 51°14.592 2°54.758 -999 3.051211 28.964365 3.526559
2008-11-27 08:16:38 51°14.605 2°54.742 -999 3.051211 28.964365 3.526559
2008-11-27 08:16:44 51°14.621 2°54.722 -999 3.066012 29.122717 3.491735
2008-11-27 08:16:49 51°14.634 2°54.706 -999 3.076881 29.242215 3.491735
2008-11-27 08:16:53 51°14.645 2°54.693 -999 3.08009 29.27978 3.422087
2008-11-27 08:16:58 51°14.659 2°54.676 -999 3.087543 29.360417 3.387263
2008-11-27 08:17:03 51°14.672 2°54.659 -999 3.093547 29.428186 3.352439
2008-11-27 08:17:08 51°14.686 2°54.642 -999 3.093547 29.428186 3.352439
2008-11-27 08:17:13 51°14.699 2°54.625 -999 3.101517 29.515129 3.352439
2008-11-27 08:17:19 51°14.715 2°54.605 -999 3.110316 29.612402 3.352439
2008-11-27 08:17:24 51°14.728 2°54.587 -999 3.117459 29.690735 3.387263
2008-11-27 08:17:28 51°14.739 2°54.573 -999 3.123049 29.751967 3.387263
2008-11-27 08:17:33 51°14.751 2°54.556 -999 3.120151 29.72065 3.352439
2008-11-27 08:17:39 51°14.767 2°54.535 -999 3.120151 29.72065 3.352439
2008-11-27 08:17:44 51°14.78 2°54.517 -999 3.1216 29.73827 3.387263
2008-11-27 08:17:48 51°14.79 2°54.503 -999 3.130503 29.837588 3.387263
2008-11-27 08:17:53 51°14.803 2°54.486 -999 3.142201 29.963301 3.317614
2008-11-27 08:17:59 51°14.819 2°54.465 -999 3.142408 29.967858 3.317614
2008-11-27 08:18:04 51°14.832 2°54.447 -999 3.145618 30.000921 3.317614
2008-11-27 08:18:08 51°14.842 2°54.433 -999 3.145618 30.000921 3.317614
2008-11-27 08:18:13 51°14.855 2°54.416 -999 3.154107 30.092879 3.317614
2008-11-27 08:18:18 51°14.868 2°54.399 -999 3.164046 30.197004 3.317614
2008-11-27 08:18:24 51°14.884 2°54.378 -999 3.175848 30.321662 3.317614
2008-11-27 08:18:28 51°14.894 2°54.363 -999 3.181128 30.369432 3.317614
2008-11-27 08:18:33 51°14.907 2°54.346 -999 3.193449 30.496411 3.352439
2008-11-27 08:18:39 51°14.922 2°54.325 -999 3.193449 30.496411 3.352439
2008-11-27 08:18:43 51°14.932 2°54.311 -999 3.194898 30.511733 3.387263
2008-11-27 08:18:49 51°14.947 2°54.291 -999 3.200904 30.576025 3.422087
2008-11-27 08:18:53 51°14.957 2°54.277 -999 3.215399 30.729344 3.456911
2008-11-27 08:18:59 51°14.972 2°54.256 -999 3.218298 30.758397 3.526559
2008-11-27 08:19:03 51°14.983 2°54.242 -999 3.218505 30.758152 3.596207
2008-11-27 08:19:08 51°14.995 2°54.224 -999 3.218505 30.758152 3.596207
2008-11-27 08:19:13 51°15.008 2°54.206 -999 3.231241 30.892945 3.596207
2008-11-27 08:19:19 51°15.023 2°54.184 -999 3.236833 30.952149 3.631031
2008-11-27 08:19:25 51°15.038 2°54.163 -999 3.239421 30.977928 3.665855
2008-11-27 08:19:29 51°15.047 2°54.149 -999 3.244495 31.030029 3.700679
2008-11-27 08:19:33 51°15.057 2°54.135 -999 3.245323 31.036345 3.700679
2008-11-27 08:19:38 51°15.07 2°54.117 -999 3.245323 31.036345 3.700679
2008-11-27 08:19:43 51°15.082 2°54.099 -999 3.241389 30.993854 3.631031
2008-11-27 08:19:49 51°15.097 2°54.078 -999 3.247601 31.058836 3.596207
2008-11-27 08:19:53 51°15.108 2°54.063 -999 3.243667 31.017979 3.596207
2008-11-27 08:19:59 51°15.123 2°54.042 -999 3.251433 31.100243 3.665855
2008-11-27 08:20:03 51°15.133 2°54.029 -999 3.252158 31.10628 3.665855
2008-11-27 08:20:09 51°15.149 2°54.009 -999 3.252158 31.10628 3.665855
2008-11-27 08:20:13 51°15.159 2°53.995 -999 3.255678 31.143582 3.665855
2008-11-27 08:20:17 51°15.169 2°53.981 -999 3.245323 31.033888 3.631031
2008-11-27 08:20:23 51°15.184 2°53.96 -999 3.248223 31.060497 3.596207
2008-11-27 08:20:29 51°15.199 2°53.94 -999 3.260752 31.188296 3.561383
2008-11-27 08:20:33 51°15.21 2°53.926 -999 3.267069 31.256884 3.526559
2008-11-27 08:20:38 51°15.223 2°53.909 -999 3.267069 31.256884 3.526559
2008-11-27 08:20:44 51°15.238 2°53.888 -999 3.260131 31.185828 3.456911
2008-11-27 08:20:49 51°15.251 2°53.871 -999 3.269658 31.286801 3.456911
2008-11-27 08:20:53 51°15.261 2°53.857 -999 3.271729 31.308758 3.422087
2008-11-27 08:20:59 51°15.277 2°53.837 -999 3.267379 31.264302 3.317614
2008-11-27 08:21:03 51°15.287 2°53.823 -999 3.26272 31.21491 3.28279
2008-11-27 08:21:09 51°15.302 2°53.803 -999 3.26272 31.21491 3.28279
2008-11-27 08:21:13 51°15.313 2°53.789 -999 3.269451 31.287909 3.247966
2008-11-27 08:21:19 51°15.328 2°53.769 -999 3.271314 31.306846 3.178318
2008-11-27 08:21:23 51°15.339 2°53.756 -999 3.268311 31.275007 3.10867
2008-11-27 08:21:29 51°15.354 2°53.736 -999 3.266033 31.250032 3.10867
2008-11-27 08:21:33 51°15.365 2°53.723 -999 3.271211 31.302443 3.039022
2008-11-27 08:21:39 51°15.381 2°53.703 -999 3.271211 31.302443 3.039022
2008-11-27 08:21:44 51°15.394 2°53.687 -999 3.264376 31.230822 3.10867
2008-11-27 08:21:49 51°15.407 2°53.671 -999 3.277217 31.367782 2.93455
2008-11-27 08:21:53 51°15.417 2°53.658 -999 3.282188 31.418844 2.93455
2008-11-27 08:21:59 51°15.433 2°53.638 -999 3.280841 31.403736 2.864902
2008-11-27 08:22:04 51°15.446 2°53.621 -999 3.282809 31.424605 2.830078
2008-11-27 08:22:09 51°15.459 2°53.604 -999 3.282809 31.424605 2.830078
2008-11-27 08:22:13 51°15.469 2°53.591 -999 3.284052 31.439446 2.795254
2008-11-27 08:22:19 51°15.485 2°53.571 -999 3.281152 31.410347 2.76043
2008-11-27 08:22:24 51°15.498 2°53.555 -999 3.283948 31.440008 2.76043
2008-11-27 08:22:29 51°15.511 2°53.539 -999 3.279495 31.39443 2.76043
2008-11-27 08:22:33 51°15.521 2°53.526 -999 3.284673 31.449358 2.830078
2008-11-27 08:22:39 51°15.537 2°53.507 -999 3.284673 31.449358 2.830078
2008-11-27 08:22:43 51°15.548 2°53.494 -999 3.288815 31.489985 2.864902
2008-11-27 08:22:49 51°15.564 2°53.476 -999 3.287365 31.47211 3.004198
2008-11-27 08:22:53 51°15.575 2°53.464 -999 3.290576 31.504508 3.10867
2008-11-27 08:22:58 51°15.588 2°53.448 -999 3.290058 31.497351 3.143494
2008-11-27 08:23:04 51°15.605 2°53.43 -999 3.288505 31.480041 3.143494
2008-11-27 08:23:09 51°15.618 2°53.415 -999 3.288505 31.480041 3.143494
2008-11-27 08:23:14 51°15.633 2°53.401 -999 3.293268 31.527252 3.143494
2008-11-27 08:23:19 51°15.646 2°53.386 -999 3.293372 31.525024 3.10867
2008-11-27 08:23:23 51°15.657 2°53.375 -999 3.293682 31.525824 3.10867
2008-11-27 08:23:29 51°15.674 2°53.357 -999 3.295236 31.54147 3.143494
2008-11-27 08:23:33 51°15.686 2°53.346 -999 3.290576 31.489549 3.143494
2008-11-27 08:23:39 51°15.703 2°53.33 -999 3.290576 31.489549 3.143494
2008-11-27 08:23:43 51°15.714 2°53.318 -999 3.293889 31.523863 3.143494
2008-11-27 08:23:49 51°15.731 2°53.302 -999 3.283948 31.416788 3.178318
2008-11-27 08:23:53 51°15.742 2°53.291 -999 3.280427 31.376984 3.247966
2008-11-27 08:23:59 51°15.76 2°53.274 -999 3.291611 31.495547 3.28279
2008-11-27 08:24:03 51°15.771 2°53.262 -999 3.281152 31.383839 3.178318
2008-11-27 08:24:09 51°15.788 2°53.245 -999 3.281152 31.383839 3.178318
2008-11-27 08:24:13 51°15.8 2°53.234 -999 3.304245 31.628721 3.178318
2008-11-27 08:24:17 51°15.811 2°53.223 -999 3.295753 31.537811 3.213142
2008-11-27 08:24:23 51°15.828 2°53.206 -999 3.296168 31.542204 3.213142
2008-11-27 08:24:29 51°15.845 2°53.188 -999 3.308284 31.669905 3.28279
2008-11-27 08:24:33 51°15.856 2°53.177 -999 3.303417 31.617429 3.28279
2008-11-27 08:24:39 51°15.873 2°53.16 -999 3.303417 31.617429 3.28279
2008-11-27 08:24:43 51°15.885 2°53.148 -999 3.298549 31.564969 3.352439
2008-11-27 08:24:49 51°15.902 2°53.132 -999 3.310873 31.695707 3.387263
2008-11-27 08:24:53 51°15.913 2°53.12 -999 3.309216 31.677289 3.387263
2008-11-27 08:24:58 51°15.927 2°53.106 -999 3.312841 31.714916 3.387263
2008-11-27 08:25:04 51°15.945 2°53.09 -999 3.311184 31.696496 3.352439
2008-11-27 08:25:09 51°15.959 2°53.075 -999 3.311184 31.696496 3.352439
2008-11-27 08:25:13 51°15.97 2°53.064 -999 3.316051 31.746476 3.352439
2008-11-27 08:25:19 51°15.987 2°53.047 -999 3.31688 31.753594 3.317614
2008-11-27 08:25:24 51°16.002 2°53.033 -999 3.313048 31.712932 3.247966
2008-11-27 08:25:29 51°16.016 2°53.019 -999 3.313566 31.716754 3.247966
2008-11-27 08:25:34 51°16.03 2°53.005 -999 3.316776 31.750821 3.247966
2008-11-27 08:25:39 51°16.044 2°52.991 -999 3.316776 31.750821 3.247966
2008-11-27 08:25:44 51°16.059 2°52.977 -999 3.312219 31.70247 3.213142
2008-11-27 08:25:49 51°16.073 2°52.963 -999 3.316465 31.748361 3.143494
2008-11-27 08:25:53 51°16.084 2°52.952 -999 3.315948 31.742866 3.10867
2008-11-27 08:25:59 51°16.101 2°52.936 -999 3.317708 31.759875 3.004198
2008-11-27 08:26:04 51°16.116 2°52.922 -999 3.317087 31.751607 3.004198
2008-11-27 08:26:09 51°16.13 2°52.908 -999 3.317087 31.751607 3.004198
2008-11-27 08:26:13 51°16.142 2°52.896 -999 3.315119 31.729055 2.93455
2008-11-27 08:26:19 51°16.159 2°52.88 -999 3.316155 31.736696 2.864902
2008-11-27 08:26:24 51°16.173 2°52.866 -999 3.316051 31.732252 2.795254
2008-11-27 08:26:29 51°16.187 2°52.852 -999 3.319676 31.76652 2.76043
2008-11-27 08:26:34 51°16.202 2°52.838 -999 3.313048 31.692878 2.690782
2008-11-27 08:26:39 51°16.216 2°52.824 -999 3.313048 31.692878 2.690782
2008-11-27 08:26:44 51°16.23 2°52.81 -999 3.319676 31.759825 2.621133
2008-11-27 08:26:49 51°16.244 2°52.795 -999 3.320401 31.764167 2.586309
2008-11-27 08:26:53 51°16.255 2°52.783 -999 3.319986 31.755591 2.586309
2008-11-27 08:26:58 51°16.269 2°52.769 -999 3.316569 31.714343 2.516661
2008-11-27 08:27:04 51°16.286 2°52.752 -999 3.321643 31.763959 2.481837
2008-11-27 08:27:09 51°16.3 2°52.738 -999 3.321643 31.763959 2.481837
2008-11-27 08:27:14 51°16.314 2°52.724 -999 3.322782 31.771018 2.447013
2008-11-27 08:27:19 51°16.328 2°52.711 -999 3.324336 31.782465 2.447013
2008-11-27 08:27:24 51°16.342 2°52.697 -999 3.327028 31.804311 2.516661
2008-11-27 08:27:29 51°16.356 2°52.683 -999 3.324543 31.770445 2.516661
2008-11-27 08:27:34 51°16.37 2°52.668 -999 3.325475 31.772797 2.621133
2008-11-27 08:27:39 51°16.384 2°52.654 -999 3.325475 31.772797 2.621133
2008-11-27 08:27:44 51°16.398 2°52.64 -999 3.333242 31.84755 2.690782
2008-11-27 08:27:50 51°16.415 2°52.624 -999 3.333967 31.849368 2.795254
2008-11-27 08:27:53 51°16.423 2°52.615 -999 3.337799 31.884093 2.899726
2008-11-27 08:27:59 51°16.44 2°52.599 -999 3.341217 31.915263 2.969374
2008-11-27 08:28:03 51°16.452 2°52.587 -999 3.339456 31.889911 3.073846
2008-11-27 08:28:09 51°16.469 2°52.571 -999 3.339456 31.889911 3.073846
2008-11-27 08:28:14 51°16.482 2°52.556 -999 3.34422 31.935329 3.178318
2008-11-27 08:28:17 51°16.491 2°52.548 -999 3.346498 31.953583 3.247966
2008-11-27 08:28:24 51°16.51 2°52.528 -999 3.347016 31.95487 3.352439
2008-11-27 08:28:29 51°16.524 2°52.514 -999 3.346291 31.943 3.456911
2008-11-27 08:28:33 51°16.534 2°52.503 -999 3.344323 31.918817 3.561383
2008-11-27 08:28:39 51°16.551 2°52.485 -999 3.344323 31.918817 3.561383
2008-11-27 08:28:44 51°16.564 2°52.472 -999 3.348363 31.959054 3.665855
2008-11-27 08:28:49 51°16.578 2°52.458 -999 3.350227 31.977108 3.700679
2008-11-27 08:28:54 51°16.592 2°52.444 -999 3.34857 31.957052 3.805151
2008-11-27 08:28:59 51°16.606 2°52.43 -999 3.34598 31.930488 3.909623
2008-11-27 08:29:04 51°16.62 2°52.416 -999 3.351573 31.989681 3.979271
2008-11-27 08:29:09 51°16.633 2°52.402 -999 3.351573 31.989681 3.979271
2008-11-27 08:29:13 51°16.644 2°52.39 -999 3.34743 31.946672 4.083744
2008-11-27 08:29:19 51°16.661 2°52.374 -999 3.351366 31.989168 4.153392
2008-11-27 08:29:24 51°16.674 2°52.359 -999 3.346913 31.942868 4.257864
2008-11-27 08:29:29 51°16.688 2°52.346 -999 3.34277 31.900701 4.257864
2008-11-27 08:29:33 51°16.698 2°52.334 -999 3.340181 31.877487 4.327512
2008-11-27 08:29:39 51°16.714 2°52.317 -999 3.340181 31.877487 4.327512
2008-11-27 08:29:45 51°16.73 2°52.3 -999 3.34857 31.96796 4.362336
2008-11-27 08:29:49 51°16.741 2°52.289 -999 3.348466 31.968543 4.362336
2008-11-27 08:29:53 51°16.751 2°52.278 -999 3.346498 31.950226 4.466808
2008-11-27 08:29:59 51°16.767 2°52.26 -999 3.345877 31.945325 4.501632
2008-11-27 08:30:03 51°16.777 2°52.248 -999 3.344323 31.930554 4.536456
2008-11-27 08:30:09 51°16.793 2°52.231 -999 3.344323 31.930554 4.536456
2008-11-27 08:30:13 51°16.803 2°52.22 -999 3.345773 31.947584 4.57128
2008-11-27 08:30:19 51°16.819 2°52.203 -999 3.346913 31.961327 4.606104
2008-11-27 08:30:24 51°16.833 2°52.189 -999 3.344013 31.933135 4.640929
2008-11-27 08:30:29 51°16.846 2°52.175 -999 3.343184 31.926039 4.675753
2008-11-27 08:30:34 51°16.859 2°52.16 -999 3.338627 31.8803 4.710577
2008-11-27 08:30:39 51°16.872 2°52.145 -999 3.338627 31.8803 4.710577
2008-11-27 08:30:44 51°16.886 2°52.131 -999 3.344945 31.948881 4.710577
2008-11-27 08:30:49 51°16.899 2°52.116 -999 3.341009 31.908038 4.745401
2008-11-27 08:30:53 51°16.909 2°52.105 -999 3.340181 31.90094 4.780225
2008-11-27 08:30:59 51°16.925 2°52.088 -999 3.342874 31.930299 4.815049
2008-11-27 08:31:04 51°16.939 2°52.074 -999 3.341631 31.919651 4.815049
2008-11-27 08:31:09 51°16.952 2°52.059 -999 3.341631 31.919651 4.815049
2008-11-27 08:31:13 51°16.963 2°52.047 -999 3.342252 31.927912 4.849873
2008-11-27 08:31:19 51°16.979 2°52.029 -999 3.345049 31.956696 4.815049
2008-11-27 08:31:24 51°16.992 2°52.015 -999 3.342977 31.935592 4.849873
2008-11-27 08:31:29 51°17.006 2°52.001 -999 3.340492 31.911778 4.815049
2008-11-27 08:31:33 51°17.017 2°51.989 -999 3.342977 31.938949 4.849873
2008-11-27 08:31:39 51°17.032 2°51.972 -999 3.342977 31.938949 4.849873
2008-11-27 08:31:44 51°17.046 2°51.957 -999 3.343288 31.943921 4.849873
2008-11-27 08:31:50 51°17.062 2°51.94 -999 3.342252 31.933787 4.849873
2008-11-27 08:31:54 51°17.072 2°51.927 -999 3.344531 31.958769 4.849873
2008-11-27 08:31:59 51°17.086 2°51.913 -999 3.34101 31.921459 4.849873
2008-11-27 08:32:04 51°17.099 2°51.898 -999 3.342356 31.937403 4.815049
2008-11-27 08:32:09 51°17.113 2°51.884 -999 3.342356 31.937403 4.815049
2008-11-27 08:32:14 51°17.126 2°51.87 -999 3.338317 31.895447 4.849873
2008-11-27 08:32:19 51°17.139 2°51.856 -999 3.341527 31.929463 4.849873
2008-11-27 08:32:24 51°17.153 2°51.841 -999 3.341631 31.928882 4.815049
2008-11-27 08:32:29 51°17.166 2°51.827 -999 3.342667 31.939016 4.815049
2008-11-27 08:32:34 51°17.179 2°51.812 -999 3.338213 31.891834 4.780225
2008-11-27 08:32:39 51°17.193 2°51.798 -999 3.338213 31.891834 4.780225
2008-11-27 08:32:44 51°17.206 2°51.782 -999 3.341735 31.930818 4.745401
2008-11-27 08:32:49 51°17.219 2°51.767 -999 3.337592 31.887766 4.780225
2008-11-27 08:32:54 51°17.232 2°51.752 -999 3.342252 31.936305 4.710577
2008-11-27 08:32:59 51°17.245 2°51.737 -999 3.341424 31.926687 4.710577
2008-11-27 08:33:04 51°17.259 2°51.722 -999 3.344738 31.963485 4.675753
2008-11-27 08:33:09 51°17.272 2°51.707 -999 3.344738 31.963485 4.675753
2008-11-27 08:33:14 51°17.285 2°51.692 -999 3.343392 31.949217 4.640929
2008-11-27 08:33:19 51°17.298 2°51.677 -999 3.344531 31.96129 4.640929
2008-11-27 08:33:24 51°17.311 2°51.662 -999 3.342045 31.933271 4.640929
2008-11-27 08:33:29 51°17.325 2°51.648 -999 3.342667 31.939855 4.640929
2008-11-27 08:33:33 51°17.335 2°51.636 -999 3.341113 31.923395 4.710577
2008-11-27 08:33:39 51°17.352 2°51.62 -999 3.341113 31.923395 4.710577
2008-11-27 08:33:44 51°17.365 2°51.606 -999 3.344117 31.955219 4.675753
2008-11-27 08:33:49 51°17.379 2°51.592 -999 3.34277 31.939273 4.640929
2008-11-27 08:33:54 51°17.392 2°51.578 -999 3.343599 31.947213 4.675753
2008-11-27 08:33:59 51°17.406 2°51.564 -999 3.345049 31.963416 4.640929
2008-11-27 08:34:04 51°17.419 2°51.55 -999 3.338627 31.894546 4.606104
2008-11-27 08:34:09 51°17.432 2°51.536 -999 3.338627 31.894546 4.606104
2008-11-27 08:34:14 51°17.446 2°51.521 -999 3.343495 31.946955 4.57128
2008-11-27 08:34:19 51°17.459 2°51.507 -999 3.344531 31.957929 4.57128
2008-11-27 08:34:24 51°17.472 2°51.493 -999 3.345359 31.965868 4.501632
2008-11-27 08:34:30 51°17.487 2°51.477 -999 3.344427 31.955992 4.431984
2008-11-27 08:34:34 51°17.498 2°51.466 -999 3.346188 31.975489 4.362336
2008-11-27 08:34:39 51°17.511 2°51.451 -999 3.346188 31.975489 4.362336
2008-11-27 08:34:44 51°17.525 2°51.437 -999 3.343702 31.94831 4.327512
2008-11-27 08:34:50 51°17.541 2°51.419 -999 3.344842 31.959541 4.257864
2008-11-27 08:34:54 51°17.552 2°51.408 -999 3.340181 31.909325 4.22304
2008-11-27 08:34:59 51°17.566 2°51.394 -999 3.347742 31.988588 4.22304
2008-11-27 08:35:03 51°17.577 2°51.383 -999 3.344842 31.957861 4.153392
2008-11-27 08:35:09 51°17.592 2°51.364 -999 3.344842 31.957861 4.153392
2008-11-27 08:35:14 51°17.606 2°51.35 -999 3.345774 31.967737 4.118568
2008-11-27 08:35:19 51°17.619 2°51.335 -999 3.345049 31.958376 4.083744
2008-11-27 08:35:24 51°17.632 2°51.32 -999 3.348259 31.991553 4.04892
2008-11-27 08:35:29 51°17.645 2°51.306 -999 3.344324 31.950695 4.04892
2008-11-27 08:35:34 51°17.658 2°51.29 -999 3.346292 31.971543 4.04892
2008-11-27 08:35:39 51°17.672 2°51.275 -999 3.346292 31.971543 4.04892
2008-11-27 08:35:44 51°17.685 2°51.26 -999 3.341631 31.921329 4.118568
2008-11-27 08:35:49 51°17.698 2°51.245 -999 3.348674 31.994261 4.153392
2008-11-27 08:35:54 51°17.711 2°51.23 -999 3.345359 31.958308 4.153392
2008-11-27 08:35:59 51°17.725 2°51.216 -999 3.348052 31.985996 4.118568
2008-11-27 08:36:04 51°17.738 2°51.201 -999 3.347638 31.980766 4.153392
2008-11-27 08:36:09 51°17.752 2°51.186 -999 3.347638 31.980766 4.153392
2008-11-27 08:36:14 51°17.765 2°51.17 -999 3.299894 31.474687 4.153392
2008-11-27 08:36:19 51°17.778 2°51.155 -999 3.351263 32.019173 4.188216
2008-11-27 08:36:25 51°17.794 2°51.137 -999 3.35292 32.037575 4.153392
2008-11-27 08:36:29 51°17.805 2°51.125 -999 3.352402 32.033771 4.083744
2008-11-27 08:36:34 51°17.818 2°51.11 -999 3.352402 32.034613 4.083744
2008-11-27 08:36:39 51°17.831 2°51.095 -999 3.352402 32.034613 4.083744
2008-11-27 08:36:44 51°17.845 2°51.08 -999 3.351988 32.031064 4.04892
2008-11-27 08:36:49 51°17.859 2°51.066 -999 3.351781 32.029711 4.04892
2008-11-27 08:36:54 51°17.873 2°51.052 -999 3.351159 32.024808 4.04892
2008-11-27 08:36:59 51°17.887 2°51.039 -999 3.350952 32.022613 4.04892
2008-11-27 08:37:04 51°17.901 2°51.025 -999 3.351263 32.025906 4.014096
2008-11-27 08:37:09 51°17.915 2°51.012 -999 3.351263 32.025906 4.014096
2008-11-27 08:37:14 51°17.929 2°50.999 -999 3.351159 32.024808 4.04892
2008-11-27 08:37:19 51°17.943 2°50.986 -999 3.351263 32.026748 4.04892
2008-11-27 08:37:24 51°17.957 2°50.973 -999 3.351367 32.027846 4.083744
2008-11-27 08:37:29 51°17.971 2°50.959 -999 3.351263 32.028432 4.04892
2008-11-27 08:37:34 51°17.985 2°50.946 -999 3.351677 32.031981 4.04892
2008-11-27 08:37:39 51°17.999 2°50.931 -999 3.351677 32.031981 4.04892
2008-11-27 08:37:44 51°18.013 2°50.918 -999 3.351574 32.031725 4.04892
2008-11-27 08:37:49 51°18.027 2°50.904 -999 3.35147 32.030627 4.014096
2008-11-27 08:37:54 51°18.041 2°50.891 -999 3.351263 32.028432 4.014096
2008-11-27 08:37:59 51°18.055 2°50.878 -999 3.351367 32.030371 3.979271
2008-11-27 08:38:04 51°18.069 2°50.864 -999 3.350849 32.024041 3.979271
2008-11-27 08:38:09 51°18.084 2°50.851 -999 3.350849 32.024041 3.979271
2008-11-27 08:38:14 51°18.097 2°50.836 -999 3.351263 32.029274 3.909623
2008-11-27 08:38:19 51°18.112 2°50.822 -999 3.351677 32.033665 3.909623
2008-11-27 08:38:24 51°18.126 2°50.808 -999 3.35147 32.032311 3.839975
2008-11-27 08:38:29 51°18.14 2°50.793 -999 3.351781 32.036447 3.839975
2008-11-27 08:38:34 51°18.154 2°50.78 -999 3.351263 32.0318 3.839975
2008-11-27 08:38:39 51°18.168 2°50.765 -999 3.351263 32.0318 3.839975
2008-11-27 08:38:44 51°18.182 2°50.753 -999 3.351159 32.030702 3.735503
2008-11-27 08:38:49 51°18.197 2°50.739 -999 3.351677 32.035349 3.735503
2008-11-27 08:38:54 51°18.211 2°50.725 -999 3.351574 32.035094 3.700679
2008-11-27 08:38:59 51°18.225 2°50.712 -999 3.351056 32.030446 3.665855
2008-11-27 08:39:04 51°18.239 2°50.698 -999 3.351677 32.037034 3.665855
2008-11-27 08:39:09 51°18.254 2°50.685 -999 3.351677 32.037034 3.665855
2008-11-27 08:39:14 51°18.268 2°50.671 -999 3.351367 32.032898 3.631031
2008-11-27 08:39:18 51°18.279 2°50.662 -999 3.350331 32.021077 3.631031
2008-11-27 08:39:24 51°18.296 2°50.645 -999 3.35147 32.033154 3.596207
2008-11-27 08:39:29 51°18.311 2°50.632 -999 3.351367 32.032898 3.561383
2008-11-27 08:39:34 51°18.325 2°50.619 -999 3.351781 32.037289 3.526559
2008-11-27 08:39:39 51°18.339 2°50.606 -999 3.351781 32.037289 3.526559
2008-11-27 08:39:44 51°18.354 2°50.594 -999 3.351367 32.032056 3.491735
2008-11-27 08:39:49 51°18.368 2°50.579 -999 3.351884 32.037545 3.456911
2008-11-27 08:39:53 51°18.379 2°50.57 -999 3.351677 32.035349 3.352439
2008-11-27 08:39:59 51°18.396 2°50.552 -999 3.351781 32.035605 3.352439
2008-11-27 08:40:03 51°18.407 2°50.543 -999 3.352092 32.037214 3.317614
2008-11-27 08:40:09 51°18.424 2°50.525 -999 3.352092 32.037214 3.317614
2008-11-27 08:40:14 51°18.438 2°50.513 -999 3.352195 32.036627 3.247966
2008-11-27 08:40:19 51°18.452 2°50.498 -999 3.35292 32.044312 3.213142
2008-11-27 08:40:24 51°18.466 2°50.486 -999 3.353231 32.046763 3.178318
2008-11-27 08:40:29 51°18.479 2°50.471 -999 3.353024 32.043725 3.10867
2008-11-27 08:40:34 51°18.494 2°50.459 -999 3.354266 32.055213 3.039022
2008-11-27 08:40:39 51°18.507 2°50.444 -999 3.354266 32.055213 3.039022
2008-11-27 08:40:44 51°18.521 2°50.43 -999 3.35437 32.054626 3.004198
2008-11-27 08:40:49 51°18.535 2°50.417 -999 3.354991 32.061212 2.969374
2008-11-27 08:40:54 51°18.549 2°50.403 -999 3.354784 32.058174 2.864902
2008-11-27 08:40:59 51°18.563 2°50.39 -999 3.354681 32.057076 2.830078
2008-11-27 08:41:04 51°18.577 2°50.377 -999 3.355509 32.064173 2.76043
2008-11-27 08:41:09 51°18.591 2°50.364 -999 3.355509 32.064173 2.76043
2008-11-27 08:41:14 51°18.604 2°50.35 -999 3.355924 32.066878 2.621133
2008-11-27 08:41:19 51°18.618 2°50.337 -999 3.356131 32.06823 2.586309
2008-11-27 08:41:24 51°18.632 2°50.323 -999 3.356441 32.071523 2.447013
2008-11-27 08:41:30 51°18.649 2°50.308 -999 3.355716 32.062997 2.342541
2008-11-27 08:41:34 51°18.66 2°50.296 -999 3.357374 32.079716 2.272893
2008-11-27 08:41:39 51°18.674 2°50.283 -999 3.357374 32.079716 2.272893
2008-11-27 08:41:44 51°18.688 2°50.27 -999 3.358099 32.086556 2.203245
2008-11-27 08:41:50 51°18.705 2°50.255 -999 3.358616 32.090358 2.133597
2008-11-27 08:41:54 51°18.717 2°50.245 -999 3.357063 32.07221 1.9943
2008-11-27 08:41:58 51°18.728 2°50.235 -999 3.35872 32.08977 1.9943
2008-11-27 08:42:04 51°18.745 2°50.221 -999 3.357166 32.071622 1.959476
2008-11-27 08:42:09 51°18.76 2°50.209 -999 3.357166 32.071622 1.959476
2008-11-27 08:42:13 51°18.772 2°50.2 -999 3.358098 32.081499 1.924652
2008-11-27 08:42:19 51°18.789 2°50.186 -999 3.359031 32.091376 1.889828
2008-11-27 08:42:24 51°18.804 2°50.174 -999 3.358306 32.083694 1.855004
2008-11-27 08:42:29 51°18.818 2°50.162 -999 3.359445 32.096609 1.855004
2008-11-27 08:42:34 51°18.833 2°50.151 -999 3.358823 32.09171 1.855004
2008-11-27 08:42:39 51°18.848 2°50.139 -999 3.358823 32.09171 1.855004
2008-11-27 08:42:44 51°18.862 2°50.128 -999 3.359134 32.095846 1.889828
2008-11-27 08:42:49 51°18.877 2°50.117 -999 3.35727 32.076933 1.924652
2008-11-27 08:42:53 51°18.889 2°50.108 -999 3.356441 32.06731 1.9943
2008-11-27 08:42:59 51°18.907 2°50.095 -999 3.358616 32.090358 1.9943
2008-11-27 08:43:04 51°18.921 2°50.084 -999 3.358616 32.090358 2.029124
2008-11-27 08:43:09 51°18.936 2°50.073 -999 3.358616 32.090358 2.029124
2008-11-27 08:43:14 51°18.951 2°50.062 -999 3.359134 32.095003 2.133597
2008-11-27 08:43:18 51°18.963 2°50.054 -999 3.358098 32.082342 2.168421
2008-11-27 08:43:25 51°18.984 2°50.039 -999 3.358927 32.090278 2.168421
2008-11-27 08:43:29 51°18.996 2°50.03 -999 3.359652 32.097118 2.272893
2008-11-27 08:43:34 51°19.011 2°50.019 -999 3.360377 32.1048 2.272893
2008-11-27 08:43:39 51°19.025 2°50.007 -999 3.360377 32.1048 2.272893
2008-11-27 08:43:44 51°19.04 2°49.996 -999 3.359859 32.099313 2.307717
2008-11-27 08:43:49 51°19.055 2°49.985 -999 3.360998 32.111386 2.307717
2008-11-27 08:43:54 51°19.07 2°49.974 -999 3.361309 32.112991 2.342541
2008-11-27 08:43:59 51°19.085 2°49.963 -999 3.360998 32.108012 2.377365
2008-11-27 08:44:04 51°19.1 2°49.952 -999 3.361309 32.109617 2.412189
2008-11-27 08:44:09 51°19.114 2°49.94 -999 3.361309 32.109617 2.412189
2008-11-27 08:44:13 51°19.126 2°49.932 -999 3.361206 32.10599 2.412189
2008-11-27 08:44:19 51°19.144 2°49.917 -999 3.362759 32.11992 2.481837
2008-11-27 08:44:24 51°19.159 2°49.907 -999 3.361413 32.103126 2.516661
2008-11-27 08:44:29 51°19.174 2°49.896 -999 3.363691 32.125577 2.551485
2008-11-27 08:44:34 51°19.189 2°49.884 -999 3.364416 32.131571 2.551485
2008-11-27 08:44:39 51°19.204 2°49.874 -999 3.364416 32.131571 2.551485
2008-11-27 08:44:44 51°19.219 2°49.863 -999 3.364002 32.125495 2.621133
2008-11-27 08:44:49 51°19.234 2°49.853 -999 3.36452 32.129294 2.621133
2008-11-27 08:44:54 51°19.249 2°49.841 -999 3.365348 32.135539 2.621133
2008-11-27 08:44:59 51°19.264 2°49.83 -999 3.36628 32.144569 2.690782
2008-11-27 08:45:03 51°19.276 2°49.821 -999 3.365866 32.138494 2.725606
2008-11-27 08:45:09 51°19.293 2°49.807 -999 3.365866 32.138494 2.725606
2008-11-27 08:45:14 51°19.308 2°49.796 -999 3.367005 32.148029 2.725606
2008-11-27 08:45:19 51°19.323 2°49.785 -999 3.367213 32.149379 2.76043
2008-11-27 08:45:24 51°19.338 2°49.773 -999 3.368145 32.158408 2.795254
2008-11-27 08:45:30 51°19.357 2°49.759 -999 3.36887 32.164398 2.830078
2008-11-27 08:45:34 51°19.368 2°49.75 -999 3.367005 32.142968 2.830078
2008-11-27 08:45:39 51°19.383 2°49.738 -999 3.367005 32.142968 2.830078
2008-11-27 08:45:44 51°19.398 2°49.726 -999 3.369284 32.164566 2.830078
2008-11-27 08:45:49 51°19.413 2°49.714 -999 3.369388 32.165663 2.864902
2008-11-27 08:45:54 51°19.428 2°49.702 -999 3.36887 32.158491 2.864902
2008-11-27 08:45:58 51°19.44 2°49.693 -999 3.369802 32.166674 2.864902
2008-11-27 08:46:04 51°19.458 2°49.679 -999 3.369595 32.162793 2.899726
2008-11-27 08:46:09 51°19.473 2°49.667 -999 3.369595 32.162793 2.899726
2008-11-27 08:46:14 51°19.487 2°49.655 -999 3.37063 32.172915 2.93455
2008-11-27 08:46:19 51°19.502 2°49.642 -999 3.371563 32.181097 2.899726
2008-11-27 08:46:24 51°19.517 2°49.63 -999 3.371148 32.174178 2.93455
2008-11-27 08:46:29 51°19.531 2°49.617 -999 3.370734 32.168948 2.93455
2008-11-27 08:46:34 51°19.546 2°49.604 -999 3.37063 32.167008 2.969374
2008-11-27 08:46:39 51°19.561 2°49.593 -999 3.37063 32.167008 2.969374
2008-11-27 08:46:44 51°19.576 2°49.58 -999 3.371562 32.175189 2.969374
2008-11-27 08:46:49 51°19.591 2°49.569 -999 3.37177 32.17485 2.969374
2008-11-27 08:46:54 51°19.606 2°49.556 -999 3.373737 32.192305 2.93455
2008-11-27 08:46:59 51°19.621 2°49.545 -999 3.374255 32.195255 2.969374
2008-11-27 08:47:04 51°19.636 2°49.532 -999 3.374773 32.197359 2.93455
2008-11-27 08:47:09 51°19.651 2°49.521 -999 3.374773 32.197359 2.93455
2008-11-27 08:47:14 51°19.666 2°49.509 -999 3.37643 32.211522 2.899726
2008-11-27 08:47:19 51°19.681 2°49.498 -999 3.376948 32.213625 2.830078
2008-11-27 08:47:24 51°19.696 2°49.486 -999 3.378191 32.224245 2.830078
2008-11-27 08:47:29 51°19.711 2°49.474 -999 3.374359 32.181163 2.795254
2008-11-27 08:47:34 51°19.726 2°49.463 -999 3.378709 32.224658 2.76043
2008-11-27 08:47:39 51°19.741 2°49.451 -999 3.378709 32.224658 2.76043
2008-11-27 08:47:44 51°19.756 2°49.44 -999 3.379227 32.228448 2.690782
2008-11-27 08:47:49 51°19.771 2°49.428 -999 3.380159 32.236622 2.655957
2008-11-27 08:47:54 51°19.786 2°49.416 -999 3.378916 32.221783 2.586309
2008-11-27 08:47:59 51°19.801 2°49.404 -999 3.379745 32.23055 2.551485
2008-11-27 08:48:04 51°19.816 2°49.392 -999 3.379848 32.230801 2.516661
2008-11-27 08:48:10 51°19.834 2°49.378 -999 3.379848 32.230801 2.516661
2008-11-27 08:48:14 51°19.846 2°49.368 -999 3.381609 32.248585 2.412189
2008-11-27 08:48:19 51°19.861 2°49.356 -999 3.38192 32.251028 2.377365
2008-11-27 08:48:24 51°19.877 2°49.345 -999 3.382438 32.255662 2.307717
2008-11-27 08:48:30 51°19.895 2°49.33 -999 3.382438 32.253972 2.272893
2008-11-27 08:48:34 51°19.907 2°49.321 -999 3.38337 32.262989 2.238069
2008-11-27 08:48:39 51°19.922 2°49.309 -999 3.38337 32.262989 2.238069
2008-11-27 08:48:44 51°19.937 2°49.297 -999 3.381816 32.245708 2.168421
2008-11-27 08:48:49 51°19.952 2°49.285 -999 3.383888 32.265933 2.133597
2008-11-27 08:48:54 51°19.968 2°49.273 -999 3.384302 32.268625 2.098773
2008-11-27 08:48:59 51°19.983 2°49.261 -999 3.385234 32.275951 2.063949
2008-11-27 08:49:04 51°19.997 2°49.249 -999 3.385027 32.271224 2.029124
2008-11-27 08:49:09 51°20.012 2°49.236 -999 3.385027 32.271224 2.029124
2008-11-27 08:49:14 51°20.027 2°49.225 -999 3.385959 32.279394 1.9943
2008-11-27 08:49:19 51°20.042 2°49.213 -999 3.385648 32.273572 1.924652
2008-11-27 08:49:24 51°20.057 2°49.202 -999 3.386788 32.283086 1.924652
2008-11-27 08:49:29 51°20.071 2°49.189 -999 3.388756 32.301363 1.889828
2008-11-27 08:49:34 51°20.086 2°49.178 -999 3.389791 32.308935 1.855004
2008-11-27 08:49:39 51°20.101 2°49.165 -999 3.389791 32.308935 1.855004
2008-11-27 08:49:44 51°20.117 2°49.154 -999 3.389791 32.305552 1.82018
2008-11-27 08:49:49 51°20.131 2°49.142 -999 3.389584 32.299135 1.82018
2008-11-27 08:49:54 51°20.146 2°49.131 -999 3.391138 32.313025 1.750532
2008-11-27 08:49:59 51°20.161 2°49.119 -999 3.391966 32.318404 1.715708
2008-11-27 08:50:05 51°20.178 2°49.105 -999 3.392691 32.324378 1.680884
2008-11-27 08:50:09 51°20.19 2°49.095 -999 3.392691 32.324378 1.680884
2008-11-27 08:50:14 51°20.205 2°49.083 -999 3.391966 32.314176 1.64606
2008-11-27 08:50:19 51°20.22 2°49.071 -999 3.393106 32.324529 1.611236
2008-11-27 08:50:24 51°20.234 2°49.058 -999 3.393313 32.324182 1.576412
2008-11-27 08:50:29 51°20.249 2°49.047 -999 3.393727 32.327716 1.541588
2008-11-27 08:50:34 51°20.264 2°49.034 -999 3.393209 32.320551 1.506764
2008-11-27 08:50:39 51°20.279 2°49.022 -999 3.393209 32.320551 1.506764
2008-11-27 08:50:44 51°20.294 2°49.01 -999 3.394245 32.328962 1.506764
2008-11-27 08:50:50 51°20.311 2°48.996 -999 3.394659 32.330804 1.47194
2008-11-27 08:50:54 51°20.323 2°48.987 -999 3.393831 32.320357 1.47194
2008-11-27 08:50:59 51°20.338 2°48.974 -999 3.396524 32.346279 1.402292
2008-11-27 08:51:04 51°20.353 2°48.961 -999 3.396731 32.345931 1.402292
2008-11-27 08:51:10 51°20.371 2°48.948 -999 3.396731 32.345931 1.402292
2008-11-27 08:51:14 51°20.382 2°48.938 -999 3.396524 32.342051 1.332643
2008-11-27 08:51:19 51°20.397 2°48.927 -999 3.398388 32.359214 1.367467
2008-11-27 08:51:24 51°20.412 2°48.915 -999 3.399527 32.367869 1.297819
2008-11-27 08:51:29 51°20.427 2°48.903 -999 3.40077 32.37677 1.297819
2008-11-27 08:51:34 51°20.442 2°48.892 -999 3.401081 32.375823 1.262995
2008-11-27 08:51:39 51°20.457 2°48.879 -999 3.401081 32.375823 1.262995
2008-11-27 08:51:44 51°20.472 2°48.867 -999 3.402324 32.386414 1.228171
2008-11-27 08:51:49 51°20.486 2°48.854 -999 3.403049 32.391535 1.228171
2008-11-27 08:51:54 51°20.501 2°48.843 -999 3.404706 32.404808 1.228171
2008-11-27 08:51:59 51°20.516 2°48.83 -999 3.405121 32.406645 1.193347
2008-11-27 08:52:04 51°20.531 2°48.819 -999 3.405949 32.412857 1.193347
2008-11-27 08:52:09 51°20.546 2°48.806 -999 3.405949 32.412857 1.193347
2008-11-27 08:52:14 51°20.561 2°48.794 -999 3.405224 32.401814 1.158523
2008-11-27 08:52:19 51°20.575 2°48.783 -999 3.407814 32.42662 1.158523
2008-11-27 08:52:24 51°20.59 2°48.771 -999 3.408746 32.43223 1.158523
2008-11-27 08:52:29 51°20.604 2°48.758 -999 3.407917 32.420941 1.123699
2008-11-27 08:52:34 51°20.619 2°48.746 -999 3.409264 32.430925 1.123699
2008-11-27 08:52:39 51°20.633 2°48.733 -999 3.409264 32.430925 1.123699
2008-11-27 08:52:44 51°20.648 2°48.721 -999 3.410092 32.437134 1.088875
2008-11-27 08:52:49 51°20.663 2°48.709 -999 3.412268 32.456709 1.054051
2008-11-27 08:52:54 51°20.678 2°48.698 -999 3.413718 32.467782 1.054051
2008-11-27 08:52:59 51°20.692 2°48.685 -999 3.415479 32.482133 1.054051
2008-11-27 08:53:04 51°20.707 2°48.673 -999 3.416204 32.485549 1.019227
2008-11-27 08:53:09 51°20.721 2°48.661 -999 3.416204 32.485549 1.019227
2008-11-27 08:53:14 51°20.736 2°48.649 -999 3.418172 32.501234 1.019227
2008-11-27 08:53:19 51°20.751 2°48.637 -999 3.420036 32.51328 1.019227
2008-11-27 08:53:24 51°20.765 2°48.624 -999 3.422211 32.529449 1.019227
2008-11-27 08:53:29 51°20.78 2°48.612 -999 3.420554 32.502643 1.019227
2008-11-27 08:53:34 51°20.794 2°48.6 -999 3.425629 32.546851 1.019227
2008-11-27 08:53:39 51°20.809 2°48.587 -999 3.425629 32.546851 1.019227
2008-11-27 08:53:44 51°20.824 2°48.575 -999 3.427287 32.555849 0.984403
2008-11-27 08:53:49 51°20.838 2°48.563 -999 3.429566 32.570548 1.054051
2008-11-27 08:53:54 51°20.853 2°48.551 -999 3.430291 32.569712 1.019227
2008-11-27 08:53:59 51°20.868 2°48.539 -999 3.431637 32.575427 1.019227
2008-11-27 08:54:04 51°20.883 2°48.527 -999 3.432673 32.57956 1.019227
2008-11-27 08:54:09 51°20.897 2°48.516 -999 3.432673 32.57956 1.019227
2008-11-27 08:54:14 51°20.912 2°48.504 -999 3.433294 32.579328 1.019227
2008-11-27 08:54:19 51°20.927 2°48.492 -999 3.437438 32.616193 1.019227
2008-11-27 08:54:24 51°20.941 2°48.48 -999 3.438163 32.617893 1.019227
2008-11-27 08:54:29 51°20.956 2°48.468 -999 3.439406 32.626745 1.019227
2008-11-27 08:54:34 51°20.97 2°48.456 -999 3.440338 32.630625 1.054051
2008-11-27 08:54:39 51°20.985 2°48.445 -999 3.440338 32.630625 1.054051
2008-11-27 08:54:44 51°21 2°48.433 -999 3.44127 32.637049 1.054051
2008-11-27 08:54:50 51°21.018 2°48.419 -999 3.441996 32.640443 1.088875
2008-11-27 08:54:54 51°21.029 2°48.41 -999 3.443964 32.65862 1.123699
2008-11-27 08:54:59 51°21.044 2°48.398 -999 3.442099 32.636446 1.193347
2008-11-27 08:55:04 51°21.059 2°48.386 -999 3.445621 32.671826 1.228171
2008-11-27 08:55:09 51°21.074 2°48.375 -999 3.445621 32.671826 1.228171
2008-11-27 08:55:14 51°21.088 2°48.362 -999 3.446243 32.676672 1.262995
2008-11-27 08:55:19 51°21.103 2°48.35 -999 3.445621 32.66928 1.297819
2008-11-27 08:55:24 51°21.118 2°48.338 -999 3.447071 32.683698 1.332643
2008-11-27 08:55:29 51°21.132 2°48.325 -999 3.445621 32.666734 1.367467
2008-11-27 08:55:34 51°21.147 2°48.314 -999 3.446035 32.669399 1.402292
2008-11-27 08:55:39 51°21.162 2°48.301 -999 3.446035 32.669399 1.402292
2008-11-27 08:55:44 51°21.177 2°48.29 -999 3.447693 32.685147 1.402292
2008-11-27 08:55:49 51°21.191 2°48.277 -999 3.446139 32.666247 1.47194
2008-11-27 08:55:54 51°21.206 2°48.267 -999 3.448211 32.685506 1.506764
2008-11-27 08:55:59 51°21.221 2°48.254 -999 3.448936 32.690591 1.506764
2008-11-27 08:56:04 51°21.237 2°48.244 -999 3.450075 32.700885 1.541588
2008-11-27 08:56:09 51°21.252 2°48.232 -999 3.450075 32.700885 1.541588
2008-11-27 08:56:14 51°21.267 2°48.221 -999 3.450283 32.700519 1.541588
2008-11-27 08:56:19 51°21.281 2°48.208 -999 3.450904 32.703663 1.576412
2008-11-27 08:56:24 51°21.296 2°48.197 -999 3.450904 32.701117 1.576412
2008-11-27 08:56:29 51°21.311 2°48.185 -999 3.451526 32.703412 1.576412
2008-11-27 08:56:34 51°21.326 2°48.174 -999 3.452147 32.707405 1.576412
2008-11-27 08:56:39 51°21.341 2°48.163 -999 3.452147 32.707405 1.576412
2008-11-27 08:56:44 51°21.356 2°48.152 -999 3.452147 32.70401 1.576412
2008-11-27 08:56:49 51°21.371 2°48.14 -999 3.452872 32.708243 1.541588
2008-11-27 08:56:54 51°21.386 2°48.129 -999 3.452251 32.699161 1.506764
2008-11-27 08:56:59 51°21.401 2°48.117 -999 3.452872 32.702304 1.506764
2008-11-27 08:57:04 51°21.416 2°48.106 -999 3.452561 32.695644 1.506764
2008-11-27 08:57:10 51°21.434 2°48.093 -999 3.452561 32.695644 1.506764
2008-11-27 08:57:14 51°21.446 2°48.084 -999 3.453494 32.702055 1.47194
2008-11-27 08:57:19 51°21.461 2°48.072 -999 3.454633 32.711491 1.47194
2008-11-27 08:57:24 51°21.476 2°48.061 -999 3.455565 32.7179 1.437116
2008-11-27 08:57:29 51°21.491 2°48.049 -999 3.455772 32.717534 1.437116
2008-11-27 08:57:34 51°21.506 2°48.038 -999 3.456083 32.717408 1.437116
2008-11-27 08:57:39 51°21.521 2°48.026 -999 3.456083 32.717408 1.437116
2008-11-27 08:57:44 51°21.535 2°48.014 -999 3.45629 32.716193 1.437116
2008-11-27 08:57:49 51°21.55 2°48.003 -999 3.45743 32.72393 1.437116
2008-11-27 08:57:54 51°21.565 2°47.991 -999 3.45743 32.721386 1.437116
2008-11-27 08:57:59 51°21.581 2°47.979 -999 3.457326 32.717753 1.437116
2008-11-27 08:58:04 51°21.596 2°47.967 -999 3.457637 32.71678 1.437116
2008-11-27 08:58:09 51°21.611 2°47.955 -999 3.457637 32.71678 1.437116
2008-11-27 08:58:14 51°21.626 2°47.944 -999 3.458673 32.725121 1.437116
2008-11-27 08:58:19 51°21.641 2°47.933 -999 3.458984 32.726691 1.402292
2008-11-27 08:58:24 51°21.656 2°47.921 -999 3.459605 32.730678 1.437116
2008-11-27 08:58:29 51°21.671 2°47.91 -999 3.458362 32.715076 1.437116
2008-11-27 08:58:34 51°21.686 2°47.898 -999 3.461988 32.749772 1.437116
2008-11-27 08:58:39 51°21.701 2°47.886 -999 3.461988 32.749772 1.437116
2008-11-27 08:58:44 51°21.717 2°47.875 -999 3.461055 32.735739 1.402292
2008-11-27 08:58:49 51°21.732 2°47.864 -999 3.463231 32.756045 1.402292
2008-11-27 08:58:54 51°21.747 2°47.852 -999 3.463645 32.757005 1.402292
2008-11-27 08:58:59 51°21.762 2°47.841 -999 3.462195 32.737536 1.402292
2008-11-27 08:59:04 51°21.777 2°47.829 -999 3.46551 32.76641 1.402292
2008-11-27 08:59:09 51°21.791 2°47.817 -999 3.46551 32.76641 1.402292
2008-11-27 08:59:14 51°21.807 2°47.806 -999 3.464992 32.755885 1.367467
2008-11-27 08:59:19 51°21.822 2°47.794 -999 3.467582 32.77629 1.332643
2008-11-27 08:59:24 51°21.836 2°47.782 -999 3.467374 32.767334 1.367467
2008-11-27 08:59:30 51°21.854 2°47.769 -999 3.470689 32.794494 1.332643
2008-11-27 08:59:34 51°21.866 2°47.76 -999 3.471932 32.799059 1.297819
2008-11-27 08:59:39 51°21.881 2°47.748 -999 3.471932 32.799059 1.297819
2008-11-27 08:59:44 51°21.896 2°47.737 -999 3.471829 32.788648 1.297819
2008-11-27 08:59:49 51°21.911 2°47.726 -999 3.471828 32.778484 1.297819
2008-11-27 08:59:54 51°21.926 2°47.715 -999 3.474936 32.801753 1.297819
2008-11-27 08:59:59 51°21.941 2°47.704 -999 3.475972 32.802448 1.297819
2008-11-27 09:00:04 51°21.956 2°47.692 -999 3.479702 32.832217 1.297819
2008-11-27 09:00:09 51°21.971 2°47.681 -999 3.479702 32.832217 1.297819
2008-11-27 09:00:14 51°21.986 2°47.669 -999 3.479909 32.824223 1.297819
2008-11-27 09:00:19 51°22.001 2°47.659 -999 3.481463 32.832033 1.262995
2008-11-27 09:00:24 51°22.016 2°47.647 -999 3.485399 32.862253 1.297819
2008-11-27 09:00:29 51°22.031 2°47.636 -999 3.48457 32.84172 1.297819
2008-11-27 09:00:34 51°22.046 2°47.624 -999 3.484881 32.833973 1.297819
2008-11-27 09:00:39 51°22.061 2°47.612 -999 3.484881 32.833973 1.297819
2008-11-27 09:00:44 51°22.076 2°47.601 -999 3.490372 32.883817 1.297819
2008-11-27 09:00:49 51°22.09 2°47.587 -999 3.490164 32.870643 1.297819
2008-11-27 09:00:54 51°22.106 2°47.577 -999 3.491304 32.870717 1.297819
2008-11-27 09:00:59 51°22.12 2°47.564 -999 3.494826 32.898245 1.297819
2008-11-27 09:01:04 51°22.135 2°47.553 -999 3.493894 32.87919 1.262995
2008-11-27 09:01:09 51°22.15 2°47.541 -999 3.493894 32.87919 1.262995
2008-11-27 09:01:14 51°22.165 2°47.53 -999 3.496484 32.896959 1.262995
2008-11-27 09:01:19 51°22.18 2°47.518 -999 3.500317 32.930253 1.262995
2008-11-27 09:01:24 51°22.195 2°47.507 -999 3.501871 32.939721 1.262995
2008-11-27 09:01:29 51°22.209 2°47.495 -999 3.500835 32.922126 1.262995
2008-11-27 09:01:34 51°22.225 2°47.485 -999 3.501353 32.921616 1.228171
2008-11-27 09:01:39 51°22.239 2°47.472 -999 3.501353 32.921616 1.228171
2008-11-27 09:01:44 51°22.254 2°47.462 -999 3.504461 32.949005 1.193347
2008-11-27 09:01:49 51°22.269 2°47.45 -999 3.505393 32.953667 1.193347
2008-11-27 09:01:54 51°22.283 2°47.437 -999 3.50674 32.963501 1.193347
2008-11-27 09:01:59 51°22.298 2°47.426 -999 3.506947 32.961433 1.123699
2008-11-27 09:02:04 51°22.313 2°47.414 -999 3.508501 32.974275 1.123699
2008-11-27 09:02:09 51°22.327 2°47.402 -999 3.508501 32.974275 1.123699
2008-11-27 09:02:14 51°22.342 2°47.39 -999 3.508501 32.970043 1.088875
2008-11-27 09:02:19 51°22.357 2°47.378 -999 3.509641 32.979402 1.088875
2008-11-27 09:02:24 51°22.372 2°47.367 -999 3.510366 32.983588 1.054051
2008-11-27 09:02:29 51°22.386 2°47.354 -999 3.512127 32.999435 1.019227
2008-11-27 09:02:34 51°22.401 2°47.343 -999 3.509122 32.966379 1.019227
2008-11-27 09:02:39 51°22.416 2°47.33 -999 3.509122 32.966379 1.019227
2008-11-27 09:02:44 51°22.43 2°47.318 -999 3.510158 32.975501 0.984403
2008-11-27 09:02:49 51°22.445 2°47.305 -999 3.511816 32.990264 0.984403
2008-11-27 09:02:54 51°22.46 2°47.295 -999 3.513267 33.002864 0.984403
2008-11-27 09:02:59 51°22.474 2°47.282 -999 3.513888 33.006812 0.984403
2008-11-27 09:03:04 51°22.489 2°47.27 -999 3.512438 32.988289 0.949579
2008-11-27 09:03:09 51°22.503 2°47.257 -999 3.512438 32.988289 0.949579
2008-11-27 09:03:14 51°22.518 2°47.247 -999 3.516375 33.025987 0.949579
2008-11-27 09:03:19 51°22.532 2°47.234 -999 3.515753 33.016113 0.984403
2008-11-27 09:03:24 51°22.547 2°47.224 -999 3.516167 33.016204 0.949579
2008-11-27 09:03:29 51°22.561 2°47.212 -999 3.519586 33.049336 0.949579
2008-11-27 09:03:34 51°22.576 2°47.201 -999 3.51969 33.047028 0.984403
2008-11-27 09:03:39 51°22.59 2°47.19 -999 3.51969 33.047028 0.984403
2008-11-27 09:03:45 51°22.608 2°47.175 -999 3.520726 33.055296 1.019227
2008-11-27 09:03:49 51°22.62 2°47.166 -999 3.521762 33.06441 0.984403
2008-11-27 09:03:54 51°22.634 2°47.155 -999 3.520208 33.046503 0.949579
2008-11-27 09:03:59 51°22.649 2°47.143 -999 3.523213 33.076152 0.984403
2008-11-27 09:04:04 51°22.663 2°47.132 -999 3.52342 33.077466 0.984403
2008-11-27 09:04:09 51°22.678 2°47.12 -999 3.52342 33.077466 0.984403
2008-11-27 09:04:14 51°22.693 2°47.109 -999 3.521451 33.056931 1.019227
2008-11-27 09:04:19 51°22.708 2°47.098 -999 3.524974 33.093679 1.019227
2008-11-27 09:04:24 51°22.722 2°47.086 -999 3.525388 33.098851 1.054051
2008-11-27 09:04:30 51°22.74 2°47.072 -999 3.525803 33.103175 1.054051
2008-11-27 09:04:34 51°22.752 2°47.063 -999 3.52601 33.105337 1.054051
2008-11-27 09:04:39 51°22.767 2°47.051 -999 3.52601 33.105337 1.054051
2008-11-27 09:04:44 51°22.781 2°47.039 -999 3.526528 33.111591 1.054051
2008-11-27 09:04:49 51°22.795 2°47.028 -999 3.525803 33.104872 1.088875
2008-11-27 09:04:54 51°22.81 2°47.015 -999 3.525699 33.104639 1.088875
2008-11-27 09:04:59 51°22.825 2°47.005 -999 3.526114 33.110661 1.088875
2008-11-27 09:05:04 51°22.84 2°46.993 -999 3.525388 33.103942 1.088875
2008-11-27 09:05:09 51°22.855 2°46.982 -999 3.525388 33.103942 1.088875
2008-11-27 09:05:14 51°22.869 2°46.971 -999 3.527046 33.122089 1.123699
2008-11-27 09:05:19 51°22.884 2°46.959 -999 3.525388 33.105639 1.123699
2008-11-27 09:05:24 51°22.899 2°46.948 -999 3.527357 33.127032 1.123699
2008-11-27 09:05:29 51°22.914 2°46.936 -999 3.525803 33.11251 1.123699
2008-11-27 09:05:34 51°22.929 2°46.925 -999 3.527771 33.134755 1.158523
2008-11-27 09:05:39 51°22.944 2°46.914 -999 3.527771 33.134755 1.158523
2008-11-27 09:05:44 51°22.959 2°46.903 -999 3.527046 33.128034 1.158523
2008-11-27 09:05:49 51°22.974 2°46.892 -999 3.527253 33.130197 1.193347
2008-11-27 09:05:54 51°22.988 2°46.881 -999 3.526735 33.126488 1.193347
2008-11-27 09:05:59 51°23.003 2°46.869 -999 3.527253 33.134445 1.193347
2008-11-27 09:06:04 51°23.018 2°46.858 -999 3.527875 33.141784 1.228171
2008-11-27 09:06:09 51°23.033 2°46.846 -999 3.527875 33.141784 1.228171
2008-11-27 09:06:14 51°23.048 2°46.834 -999 3.528704 33.151288 1.228171
2008-11-27 09:06:19 51°23.062 2°46.824 -999 3.527772 33.142402 1.228171
2008-11-27 09:06:24 51°23.078 2°46.811 -999 3.525699 33.121619 1.228171
2008-11-27 09:06:30 51°23.096 2°46.798 -999 3.527979 33.145416 1.228171
2008-11-27 09:06:34 51°23.107 2°46.79 -999 3.526943 33.134599 1.262995
2008-11-27 09:06:39 51°23.122 2°46.778 -999 3.526943 33.134599 1.262995
2008-11-27 09:06:44 51°23.137 2°46.766 -999 3.527668 33.142171 1.228171
2008-11-27 09:06:49 51°23.151 2°46.755 -999 3.526735 33.133285 1.193347
2008-11-27 09:06:54 51°23.166 2°46.743 -999 3.527875 33.145184 1.193347
2008-11-27 09:06:59 51°23.181 2°46.732 -999 3.527668 33.143021 1.228171
2008-11-27 09:07:04 51°23.196 2°46.721 -999 3.5286 33.153607 1.193347
2008-11-27 09:07:09 51°23.211 2°46.709 -999 3.5286 33.153607 1.193347
2008-11-27 09:07:14 51°23.226 2°46.697 -999 3.529222 33.160098 1.193347
2008-11-27 09:07:19 51°23.241 2°46.686 -999 3.528082 33.147348 1.193347
2008-11-27 09:07:24 51°23.256 2°46.675 -999 3.528497 33.149974 1.193347
2008-11-27 09:07:29 51°23.271 2°46.663 -999 3.5286 33.151056 1.193347
2008-11-27 09:07:34 51°23.286 2°46.651 -999 3.529429 33.15886 1.158523
2008-11-27 09:07:39 51°23.3 2°46.639 -999 3.529429 33.15886 1.158523
2008-11-27 09:07:44 51°23.316 2°46.628 -999 3.529326 33.157778 1.193347
2008-11-27 09:07:49 51°23.33 2°46.617 -999 3.527772 33.140703 1.158523
2008-11-27 09:07:54 51°23.345 2°46.604 -999 3.529429 33.15801 1.158523
2008-11-27 09:07:59 51°23.36 2°46.593 -999 3.529947 33.162568 1.158523
2008-11-27 09:08:04 51°23.375 2°46.582 -999 3.528911 33.150901 1.123699
2008-11-27 09:08:09 51°23.389 2°46.569 -999 3.528911 33.150901 1.123699
2008-11-27 09:08:14 51°23.405 2°46.559 -999 3.529429 33.156309 1.123699
2008-11-27 09:08:19 51°23.419 2°46.545 -999 3.527979 33.141166 1.123699
2008-11-27 09:08:24 51°23.434 2°46.536 -999 3.528704 33.148737 1.088875
2008-11-27 09:08:30 51°23.451 2°46.52 -999 3.531191 33.172997 1.088875
2008-11-27 09:08:34 51°23.463 2°46.512 -999 3.531398 33.17431 1.088875
2008-11-27 09:08:39 51°23.478 2°46.5 -999 3.531398 33.17431 1.088875
2008-11-27 09:08:44 51°23.493 2°46.489 -999 3.528289 33.140162 1.054051
2008-11-27 09:08:49 51°23.508 2°46.477 -999 3.529015 33.146883 1.054051
2008-11-27 09:08:54 51°23.522 2°46.466 -999 3.531191 33.167894 1.054051
2008-11-27 09:08:59 51°23.537 2°46.455 -999 3.531916 33.174615 1.054051
2008-11-27 09:09:04 51°23.552 2°46.442 -999 3.532227 33.177859 1.019227
2008-11-27 09:09:09 51°23.567 2°46.431 -999 3.532227 33.177859 1.019227
2008-11-27 09:09:14 51°23.582 2°46.42 -999 3.533263 33.187824 1.019227
2008-11-27 09:09:19 51°23.597 2°46.407 -999 3.533677 33.190449 1.019227
2008-11-27 09:09:24 51°23.612 2°46.397 -999 3.533055 33.183109 1.019227
2008-11-27 09:09:29 51°23.626 2°46.385 -999 3.532745 33.179014 0.949579
2008-11-27 09:09:34 51°23.642 2°46.374 -999 3.533055 33.180558 0.984403
2008-11-27 09:09:39 51°23.656 2°46.36 -999 3.533055 33.180558 0.984403
2008-11-27 09:09:44 51°23.671 2°46.35 -999 3.532952 33.177776 0.949579
2008-11-27 09:09:49 51°23.686 2°46.338 -999 3.531916 33.166112 0.914755
2008-11-27 09:09:54 51°23.701 2°46.326 -999 3.533884 33.185807 0.914755
2008-11-27 09:09:59 51°23.715 2°46.314 -999 3.535335 33.200095 0.914755
2008-11-27 09:10:04 51°23.73 2°46.303 -999 3.53492 33.194068 0.879931
2008-11-27 09:10:09 51°23.745 2°46.291 -999 3.53492 33.194068 0.879931
2008-11-27 09:10:14 51°23.76 2°46.28 -999 3.534817 33.191286 0.879931
2008-11-27 09:10:19 51°23.775 2°46.267 -999 3.536164 33.203641 0.845107
2008-11-27 09:10:24 51°23.79 2°46.257 -999 3.532537 33.16495 0.879931
2008-11-27 09:10:29 51°23.805 2°46.244 -999 3.535542 33.195452 0.845107
2008-11-27 09:10:34 51°23.82 2°46.234 -999 3.535853 33.197845 0.810283
2008-11-27 09:10:39 51°23.835 2°46.222 -999 3.535853 33.197845 0.810283
2008-11-27 09:10:44 51°23.849 2°46.211 -999 3.537614 33.216226 0.810283
2008-11-27 09:10:49 51°23.864 2°46.199 -999 3.5372 33.209348 0.810283
2008-11-27 09:10:54 51°23.879 2°46.187 -999 3.539583 33.233364 0.775459
2008-11-27 09:10:59 51°23.894 2°46.176 -999 3.539375 33.228648 0.775459
2008-11-27 09:11:04 51°23.909 2°46.163 -999 3.540308 33.237527 0.775459
2008-11-27 09:11:09 51°23.924 2°46.153 -999 3.540308 33.237527 0.775459
2008-11-27 09:11:14 51°23.939 2°46.14 -999 3.538961 33.221771 0.740634
2008-11-27 09:11:19 51°23.955 2°46.129 -999 3.54093 33.240608 0.740634
2008-11-27 09:11:24 51°23.97 2°46.117 -999 3.541344 33.24323 0.70581
2008-11-27 09:11:29 51°23.984 2°46.105 -999 3.542173 33.251027 0.70581
2008-11-27 09:11:34 51°23.999 2°46.094 -999 3.541344 33.240676 0.670986
2008-11-27 09:11:39 51°24.014 2°46.082 -999 3.541344 33.240676 0.670986
2008-11-27 09:11:44 51°24.029 2°46.072 -999 3.542069 33.248243 0.636162
2008-11-27 09:11:49 51°24.044 2°46.061 -999 3.542795 33.254958 0.670986
2008-11-27 09:11:54 51°24.06 2°46.052 -999 3.542069 33.245688 0.636162
2008-11-27 09:11:59 51°24.075 2°46.042 -999 3.543623 33.260199 0.636162
2008-11-27 09:12:04 51°24.09 2°46.032 -999 3.544038 33.261968 0.636162
2008-11-27 09:12:09 51°24.104 2°46.02 -999 3.544038 33.261968 0.636162
2008-11-27 09:12:14 51°24.119 2°46.01 -999 3.545281 33.273235 0.601338
2008-11-27 09:12:19 51°24.134 2°46 -999 3.543727 33.254468 0.566514
2008-11-27 09:12:24 51°24.149 2°45.991 -999 3.545799 33.27438 0.601338
2008-11-27 09:12:29 51°24.165 2°45.981 -999 3.546835 33.283484 0.566514
2008-11-27 09:12:34 51°24.18 2°45.971 -999 3.546835 33.28178 0.566514
2008-11-27 09:12:39 51°24.195 2°45.962 -999 3.546835 33.28178 0.566514
2008-11-27 09:12:44 51°24.211 2°45.953 -999 3.547561 33.286789 0.566514
2008-11-27 09:12:49 51°24.226 2°45.943 -999 3.547871 33.286623 0.566514
2008-11-27 09:12:54 51°24.242 2°45.934 -999 3.5487 33.29186 0.53169
2008-11-27 09:12:59 51°24.257 2°45.925 -999 3.550151 33.302727 0.53169
2008-11-27 09:13:04 51°24.272 2°45.915 -999 3.550358 33.299776 0.566514
2008-11-27 09:13:09 51°24.287 2°45.906 -999 3.550358 33.299776 0.566514
2008-11-27 09:13:14 51°24.302 2°45.896 -999 3.551705 33.307856 0.566514
2008-11-27 09:13:19 51°24.318 2°45.887 -999 3.552119 33.305362 0.601338
2008-11-27 09:13:24 51°24.333 2°45.877 -999 3.552534 33.301167 0.636162
2008-11-27 09:13:30 51°24.352 2°45.867 -999 3.555642 33.324189 0.636162
2008-11-27 09:13:34 51°24.364 2°45.858 -999 3.5573 33.331241 0.670986
2008-11-27 09:13:39 51°24.379 2°45.85 -999 3.5573 33.331241 0.670986
2008-11-27 09:13:44 51°24.394 2°45.84 -999 3.558439 33.332896 0.70581
2008-11-27 09:13:49 51°24.41 2°45.832 -999 3.559475 33.334322 0.740634
2008-11-27 09:13:54 51°24.425 2°45.822 -999 3.560097 33.332285 0.740634
2008-11-27 09:13:59 51°24.441 2°45.813 -999 3.561755 33.340182 0.775459
2008-11-27 09:14:04 51°24.456 2°45.804 -999 3.562273 33.338769 0.775459
2008-11-27 09:14:09 51°24.472 2°45.794 -999 3.562273 33.338769 0.775459
2008-11-27 09:14:14 51°24.487 2°45.786 -999 3.56248 33.334122 0.775459
2008-11-27 09:14:19 51°24.502 2°45.775 -999 3.56362 33.339177 0.810283
2008-11-27 09:14:24 51°24.518 2°45.768 -999 3.563205 33.329768 0.845107
2008-11-27 09:14:29 51°24.533 2°45.756 -999 3.565381 33.346446 0.845107
2008-11-27 09:14:34 51°24.549 2°45.747 -999 3.564241 33.329498 0.879931
2008-11-27 09:14:39 51°24.564 2°45.737 -999 3.564241 33.329498 0.879931
2008-11-27 09:14:44 51°24.579 2°45.73 -999 3.56621 33.344867 0.879931
2008-11-27 09:14:49 51°24.594 2°45.719 -999 3.566935 33.349009 0.914755
2008-11-27 09:14:54 51°24.609 2°45.71 -999 3.566106 33.335297 0.879931
2008-11-27 09:14:59 51°24.625 2°45.7 -999 3.566417 33.334282 0.914755
2008-11-27 09:15:04 51°24.64 2°45.691 -999 3.567142 33.338423 0.914755
2008-11-27 09:15:09 51°24.655 2°45.683 -999 3.567142 33.338423 0.914755
2008-11-27 09:15:14 51°24.671 2°45.674 -999 3.567764 33.341487 0.914755
2008-11-27 09:15:19 51°24.686 2°45.665 -999 3.567038 33.331405 0.914755
2008-11-27 09:15:24 51°24.701 2°45.655 -999 3.568178 33.339851 0.914755
2008-11-27 09:15:29 51°24.717 2°45.646 -999 3.569007 33.345067 0.914755
2008-11-27 09:15:34 51°24.732 2°45.637 -999 3.567867 33.330682 0.949579
2008-11-27 09:15:39 51°24.747 2°45.628 -999 3.567867 33.330682 0.949579
2008-11-27 09:15:44 51°24.763 2°45.618 -999 3.569836 33.347736 0.914755
2008-11-27 09:15:49 51°24.778 2°45.609 -999 3.569629 33.343038 0.914755
2008-11-27 09:15:54 51°24.793 2°45.599 -999 3.570147 33.346721 0.949579
2008-11-27 09:15:59 51°24.809 2°45.59 -999 3.570147 33.344175 0.949579
2008-11-27 09:16:04 51°24.824 2°45.58 -999 3.570354 33.344631 0.949579
2008-11-27 09:16:09 51°24.839 2°45.572 -999 3.570354 33.344631 0.949579
2008-11-27 09:16:14 51°24.855 2°45.561 -999 3.567763 33.315191 0.914755
2008-11-27 09:16:19 51°24.869 2°45.551 -999 3.570872 33.345768 0.949579
2008-11-27 09:16:24 51°24.885 2°45.542 -999 3.568696 33.320635 0.949579
2008-11-27 09:16:29 51°24.9 2°45.533 -999 3.571286 33.344982 0.949579
2008-11-27 09:16:34 51°24.916 2°45.524 -999 3.569214 33.320928 0.949579
2008-11-27 09:16:39 51°24.932 2°45.514 -999 3.569214 33.320928 0.949579
2008-11-27 09:16:44 51°24.947 2°45.505 -999 3.57139 33.341818 0.949579
2008-11-27 09:16:49 51°24.961 2°45.494 -999 3.57139 33.339274 0.949579
2008-11-27 09:16:54 51°24.977 2°45.486 -999 3.572737 33.350711 0.984403
2008-11-27 09:16:59 51°24.992 2°45.474 -999 3.573151 33.353317 0.984403
2008-11-27 09:17:04 51°25.007 2°45.464 -999 3.573359 33.35462 0.984403
2008-11-27 09:17:09 51°25.022 2°45.452 -999 3.573359 33.35462 0.984403
2008-11-27 09:17:14 51°25.037 2°45.442 -999 3.570664 33.324967 1.019227
2008-11-27 09:17:19 51°25.051 2°45.429 -999 3.57398 33.356831 1.019227
2008-11-27 09:17:24 51°25.066 2°45.418 -999 3.57284 33.343309 1.019227
2008-11-27 09:17:30 51°25.084 2°45.403 -999 3.573566 33.349139 1.019227
2008-11-27 09:17:34 51°25.096 2°45.394 -999 3.574291 33.35497 1.019227
2008-11-27 09:17:39 51°25.111 2°45.383 -999 3.574291 33.35497 1.019227
2008-11-27 09:17:44 51°25.125 2°45.371 -999 3.574395 33.353502 1.019227
2008-11-27 09:17:49 51°25.14 2°45.36 -999 3.574706 33.355032 1.019227
2008-11-27 09:17:54 51°25.155 2°45.348 -999 3.575638 33.362163 1.019227
2008-11-27 09:17:59 51°25.17 2°45.337 -999 3.575534 33.359393 1.019227
2008-11-27 09:18:04 51°25.184 2°45.325 -999 3.576985 33.371898 1.019227
2008-11-27 09:18:09 51°25.199 2°45.313 -999 3.576985 33.371898 1.019227
2008-11-27 09:18:14 51°25.214 2°45.3 -999 3.577089 33.37043 1.019227
2008-11-27 09:18:19 51°25.228 2°45.289 -999 3.577192 33.369809 1.019227
2008-11-27 09:18:24 51°25.243 2°45.278 -999 3.577399 33.370263 0.984403
2008-11-27 09:18:29 51°25.257 2°45.265 -999 3.576985 33.364269 1.019227
2008-11-27 09:18:34 51°25.272 2°45.255 -999 3.57771 33.370096 1.019227
2008-11-27 09:18:39 51°25.286 2°45.241 -999 3.57771 33.370096 1.019227
2008-11-27 09:18:44 51°25.301 2°45.231 -999 3.57885 33.379374 1.054051
2008-11-27 09:18:49 51°25.315 2°45.216 -999 3.574498 33.332553 1.054051
2008-11-27 09:18:54 51°25.33 2°45.206 -999 3.579783 33.384806 1.054051
2008-11-27 09:18:59 51°25.344 2°45.193 -999 3.579783 33.383111 1.054051
2008-11-27 09:19:04 51°25.359 2°45.18 -999 3.578643 33.369598 1.054051
2008-11-27 09:19:09 51°25.374 2°45.168 -999 3.578643 33.369598 1.054051
2008-11-27 09:19:14 51°25.389 2°45.156 -999 3.580612 33.389163 1.019227
2008-11-27 09:19:19 51°25.403 2°45.144 -999 3.58144 33.393519 1.054051
2008-11-27 09:19:24 51°25.418 2°45.132 -999 3.581648 33.393972 1.019227
2008-11-27 09:19:29 51°25.433 2°45.121 -999 3.580715 33.382609 1.019227
2008-11-27 09:19:34 51°25.447 2°45.108 -999 3.582269 33.397027 1.019227
2008-11-27 09:19:39 51°25.462 2°45.097 -999 3.582269 33.397027 1.019227
2008-11-27 09:19:44 51°25.476 2°45.084 -999 3.581855 33.391035 1.019227
2008-11-27 09:19:50 51°25.494 2°45.071 -999 3.581544 33.385271 1.019227
2008-11-27 09:19:54 51°25.505 2°45.059 -999 3.583616 33.404209 1.019227
2008-11-27 09:19:59 51°25.52 2°45.047 -999 3.582062 33.385557 0.984403
2008-11-27 09:20:04 51°25.534 2°45.036 -999 3.584238 33.406414 0.984403
2008-11-27 09:20:09 51°25.549 2°45.022 -999 3.584238 33.406414 0.984403
2008-11-27 09:20:14 51°25.563 2°45.01 -999 3.583616 33.398276 0.984403
2008-11-27 09:20:19 51°25.577 2°44.997 -999 3.585274 33.412915 0.949579
2008-11-27 09:20:24 51°25.592 2°44.985 -999 3.584238 33.398787 0.914755
2008-11-27 09:20:29 51°25.606 2°44.972 -999 3.58486 33.403535 0.914755
2008-11-27 09:20:34 51°25.621 2°44.961 -999 3.586103 33.414724 0.914755
2008-11-27 09:20:39 51°25.635 2°44.946 -999 3.586103 33.414724 0.914755
2008-11-27 09:20:44 51°25.65 2°44.936 -999 3.585481 33.40574 0.914755
2008-11-27 09:20:49 51°25.664 2°44.921 -999 3.585481 33.403198 0.914755
2008-11-27 09:20:54 51°25.678 2°44.91 -999 3.587761 33.425121 0.879931
2008-11-27 09:20:59 51°25.693 2°44.898 -999 3.588175 33.426024 0.914755
2008-11-27 09:21:04 51°25.707 2°44.885 -999 3.58859 33.427775 0.879931
2008-11-27 09:21:09 51°25.722 2°44.873 -999 3.58859 33.427775 0.879931
2008-11-27 09:21:14 51°25.737 2°44.861 -999 3.587554 33.4145 0.845107
2008-11-27 09:21:19 51°25.751 2°44.847 -999 3.58745 33.410039 0.879931
2008-11-27 09:21:24 51°25.766 2°44.837 -999 3.59004 33.433479 0.879931
2008-11-27 09:21:29 51°25.78 2°44.823 -999 3.587864 33.408404 0.845107
2008-11-27 09:21:34 51°25.795 2°44.811 -999 3.588486 33.412301 0.845107
2008-11-27 09:21:39 51°25.809 2°44.798 -999 3.588486 33.412301 0.845107
2008-11-27 09:21:44 51°25.823 2°44.787 -999 3.592216 33.447538 0.845107
2008-11-27 09:21:49 51°25.838 2°44.773 -999 3.592424 33.446294 0.810283
2008-11-27 09:21:54 51°25.852 2°44.762 -999 3.593667 33.455778 0.775459
2008-11-27 09:21:59 51°25.867 2°44.751 -999 3.59232 33.437597 0.775459
2008-11-27 09:22:04 51°25.882 2°44.738 -999 3.593978 33.45137 0.775459
2008-11-27 09:22:10 51°25.899 2°44.724 -999 3.593978 33.45137 0.775459
2008-11-27 09:22:14 51°25.911 2°44.715 -999 3.590973 33.416882 0.775459
2008-11-27 09:22:19 51°25.925 2°44.704 -999 3.594703 33.452948 0.740634
2008-11-27 09:22:24 51°25.94 2°44.691 -999 3.596465 33.466943 0.740634
2008-11-27 09:22:30 51°25.958 2°44.678 -999 3.594703 33.445326 0.670986
2008-11-27 09:22:34 51°25.97 2°44.668 -999 3.597294 33.468743 0.70581
2008-11-27 09:22:39 51°25.984 2°44.655 -999 3.597294 33.468743 0.70581
2008-11-27 09:22:44 51°25.999 2°44.645 -999 3.598952 33.482509 0.670986
2008-11-27 09:22:49 51°26.013 2°44.633 -999 3.599781 33.487696 0.636162
2008-11-27 09:22:54 51°26.028 2°44.623 -999 3.59833 33.468452 0.636162
2008-11-27 09:22:59 51°26.043 2°44.61 -999 3.600506 33.488421 0.601338
2008-11-27 09:23:04 51°26.058 2°44.6 -999 3.600195 33.480969 0.601338
2008-11-27 09:23:09 51°26.073 2°44.586 -999 3.600195 33.480969 0.601338
2008-11-27 09:23:14 51°26.088 2°44.577 -999 3.602164 33.497097 0.566514
2008-11-27 09:23:19 51°26.103 2°44.564 -999 3.602475 33.496076 0.566514
2008-11-27 09:23:24 51°26.118 2°44.554 -999 3.601749 33.485187 0.566514
2008-11-27 09:23:29 51°26.133 2°44.541 -999 3.604132 33.505596 0.53169
2008-11-27 09:23:34 51°26.147 2°44.531 -999 3.605169 33.512921 0.53169
2008-11-27 09:23:39 51°26.162 2°44.518 -999 3.605169 33.512921 0.53169
2008-11-27 09:23:44 51°26.177 2°44.509 -999 3.605272 33.510604 0.53169
2008-11-27 09:23:49 51°26.191 2°44.497 -999 3.607241 33.528416 0.496866
2008-11-27 09:23:54 51°26.206 2°44.486 -999 3.605583 33.507888 0.496866